<?xml version="1.0" encoding="UTF-8"?>
<gpx
version="1.1"
creator="Kashmir3D 9.350 - http://www.kashmir3d.com"
xmlns:xsi="http://www.w3.org/2001/XMLSchema-instance"
xmlns="http://www.topografix.com/GPX/1/1"
xmlns:kashmir3d="http://www.kashmir3d.com/namespace/kashmir3d"
xsi:schemaLocation="http://www.topografix.com/GPX/1/1 http://www.topografix.com/GPX/1/1/gpx.xsd
	http://www.kashmir3d.com/namespace/kashmir3d http://www.kashmir3d.com/namespace/kashmir3d.xsd">
<trk>
 <name>RYUMONZAN.KML(龍門山)</name>
 <number>1</number>
 <extensions>
 <kashmir3d:line_color>0000ff</kashmir3d:line_color>
 <kashmir3d:line_size>3</kashmir3d:line_size>
 <kashmir3d:line_style>1</kashmir3d:line_style>
 <kashmir3d:icon>901001</kashmir3d:icon>
 </extensions>
<trkseg>
<trkpt lat="34.258253" lon="135.405622">
 <ele>34.6</ele>
 <time>2020-03-24T16:49:19Z</time>
</trkpt>
<trkpt lat="34.258167" lon="135.405214">
 <ele>34.5</ele>
 <time>2020-03-24T16:49:20Z</time>
</trkpt>
<trkpt lat="34.258115" lon="135.405021">
 <ele>34.6</ele>
 <time>2020-03-24T16:49:20Z</time>
</trkpt>
<trkpt lat="34.258055" lon="135.404807">
 <ele>34.5</ele>
 <time>2020-03-24T16:49:20Z</time>
</trkpt>
<trkpt lat="34.257867" lon="135.404485">
 <ele>34.5</ele>
 <time>2020-03-24T16:49:20Z</time>
</trkpt>
<trkpt lat="34.257652" lon="135.404066">
 <ele>34.9</ele>
 <time>2020-03-24T16:49:20Z</time>
</trkpt>
<trkpt lat="34.257523" lon="135.403723">
 <ele>34.8</ele>
 <time>2020-03-24T16:49:20Z</time>
</trkpt>
<trkpt lat="34.257352" lon="135.403240">
 <ele>34.5</ele>
 <time>2020-03-24T16:49:20Z</time>
</trkpt>
<trkpt lat="34.257274" lon="135.402918">
 <ele>34.3</ele>
 <time>2020-03-24T16:49:20Z</time>
</trkpt>
<trkpt lat="34.257197" lon="135.402607">
 <ele>34.2</ele>
 <time>2020-03-24T16:49:20Z</time>
</trkpt>
<trkpt lat="34.257137" lon="135.402328">
 <ele>34.1</ele>
 <time>2020-03-24T16:49:20Z</time>
</trkpt>
<trkpt lat="34.257077" lon="135.402092">
 <ele>34</ele>
 <time>2020-03-24T16:49:21Z</time>
</trkpt>
<trkpt lat="34.256982" lon="135.401953">
 <ele>34.1</ele>
 <time>2020-03-24T16:49:21Z</time>
</trkpt>
<trkpt lat="34.256871" lon="135.401835">
 <ele>33.8</ele>
 <time>2020-03-24T16:49:21Z</time>
</trkpt>
<trkpt lat="34.256699" lon="135.401642">
 <ele>33.7</ele>
 <time>2020-03-24T16:49:21Z</time>
</trkpt>
<trkpt lat="34.256570" lon="135.401384">
 <ele>33.5</ele>
 <time>2020-03-24T16:49:21Z</time>
</trkpt>
<trkpt lat="34.256416" lon="135.401041">
 <ele>33.5</ele>
 <time>2020-03-24T16:49:21Z</time>
</trkpt>
<trkpt lat="34.256279" lon="135.400697">
 <ele>33.5</ele>
 <time>2020-03-24T16:49:21Z</time>
</trkpt>
<trkpt lat="34.256133" lon="135.400172">
 <ele>33.2</ele>
 <time>2020-03-24T16:49:21Z</time>
</trkpt>
<trkpt lat="34.256098" lon="135.400054">
 <ele>33.4</ele>
 <time>2020-03-24T16:49:21Z</time>
</trkpt>
<trkpt lat="34.256013" lon="135.399979">
 <ele>33.4</ele>
 <time>2020-03-24T16:49:21Z</time>
</trkpt>
<trkpt lat="34.255789" lon="135.400043">
 <ele>33</ele>
 <time>2020-03-24T16:49:22Z</time>
</trkpt>
<trkpt lat="34.255601" lon="135.400097">
 <ele>33.2</ele>
 <time>2020-03-24T16:49:22Z</time>
</trkpt>
<trkpt lat="34.255077" lon="135.400258">
 <ele>32.8</ele>
 <time>2020-03-24T16:49:22Z</time>
</trkpt>
<trkpt lat="34.254699" lon="135.400354">
 <ele>32.8</ele>
 <time>2020-03-24T16:49:22Z</time>
</trkpt>
<trkpt lat="34.254416" lon="135.400429">
 <ele>34.4</ele>
 <time>2020-03-24T16:49:22Z</time>
</trkpt>
<trkpt lat="34.254184" lon="135.400472">
 <ele>33.5</ele>
 <time>2020-03-24T16:49:22Z</time>
</trkpt>
<trkpt lat="34.253935" lon="135.400612">
 <ele>34.1</ele>
 <time>2020-03-24T16:49:22Z</time>
</trkpt>
<trkpt lat="34.253781" lon="135.400697">
 <ele>34.8</ele>
 <time>2020-03-24T16:49:22Z</time>
</trkpt>
<trkpt lat="34.253695" lon="135.400697">
 <ele>35.6</ele>
 <time>2020-03-24T16:49:22Z</time>
</trkpt>
<trkpt lat="34.253618" lon="135.400654">
 <ele>36.9</ele>
 <time>2020-03-24T16:49:22Z</time>
</trkpt>
<trkpt lat="34.253558" lon="135.400558">
 <ele>38.4</ele>
 <time>2020-03-24T16:49:23Z</time>
</trkpt>
<trkpt lat="34.253472" lon="135.400536">
 <ele>40.2</ele>
 <time>2020-03-24T16:49:23Z</time>
</trkpt>
<trkpt lat="34.253438" lon="135.400622">
 <ele>41.5</ele>
 <time>2020-03-24T16:49:23Z</time>
</trkpt>
<trkpt lat="34.253386" lon="135.400880">
 <ele>44.6</ele>
 <time>2020-03-24T16:49:23Z</time>
</trkpt>
<trkpt lat="34.253360" lon="135.401009">
 <ele>46.2</ele>
 <time>2020-03-24T16:49:23Z</time>
</trkpt>
<trkpt lat="34.253326" lon="135.401094">
 <ele>48.7</ele>
 <time>2020-03-24T16:49:23Z</time>
</trkpt>
<trkpt lat="34.253266" lon="135.401373">
 <ele>52.5</ele>
 <time>2020-03-24T16:49:23Z</time>
</trkpt>
<trkpt lat="34.253189" lon="135.401502">
 <ele>54</ele>
 <time>2020-03-24T16:49:23Z</time>
</trkpt>
<trkpt lat="34.253146" lon="135.401577">
 <ele>55.6</ele>
 <time>2020-03-24T16:49:23Z</time>
</trkpt>
<trkpt lat="34.253111" lon="135.401577">
 <ele>56.3</ele>
 <time>2020-03-24T16:49:23Z</time>
</trkpt>
<trkpt lat="34.253077" lon="135.401363">
 <ele>58.5</ele>
 <time>2020-03-24T16:49:24Z</time>
</trkpt>
<trkpt lat="34.253043" lon="135.401169">
 <ele>61.7</ele>
 <time>2020-03-24T16:49:24Z</time>
</trkpt>
<trkpt lat="34.253008" lon="135.401041">
 <ele>63</ele>
 <time>2020-03-24T16:49:24Z</time>
</trkpt>
<trkpt lat="34.252957" lon="135.400901">
 <ele>65</ele>
 <time>2020-03-24T16:49:24Z</time>
</trkpt>
<trkpt lat="34.252871" lon="135.400751">
 <ele>67.6</ele>
 <time>2020-03-24T16:49:24Z</time>
</trkpt>
<trkpt lat="34.252768" lon="135.400547">
 <ele>68.5</ele>
 <time>2020-03-24T16:49:24Z</time>
</trkpt>
<trkpt lat="34.252665" lon="135.400333">
 <ele>70.9</ele>
 <time>2020-03-24T16:49:24Z</time>
</trkpt>
<trkpt lat="34.252579" lon="135.400129">
 <ele>72.2</ele>
 <time>2020-03-24T16:49:24Z</time>
</trkpt>
<trkpt lat="34.252554" lon="135.399979">
 <ele>73.4</ele>
 <time>2020-03-24T16:49:24Z</time>
</trkpt>
<trkpt lat="34.252511" lon="135.399871">
 <ele>74.7</ele>
 <time>2020-03-24T16:49:24Z</time>
</trkpt>
<trkpt lat="34.252519" lon="135.399753">
 <ele>75.2</ele>
 <time>2020-03-24T16:49:25Z</time>
</trkpt>
<trkpt lat="34.252433" lon="135.399614">
 <ele>76.9</ele>
 <time>2020-03-24T16:49:25Z</time>
</trkpt>
<trkpt lat="34.252373" lon="135.399539">
 <ele>77.3</ele>
 <time>2020-03-24T16:49:25Z</time>
</trkpt>
<trkpt lat="34.252270" lon="135.399517">
 <ele>79.4</ele>
 <time>2020-03-24T16:49:25Z</time>
</trkpt>
<trkpt lat="34.252210" lon="135.399528">
 <ele>79.9</ele>
 <time>2020-03-24T16:49:25Z</time>
</trkpt>
<trkpt lat="34.252133" lon="135.399603">
 <ele>82.1</ele>
 <time>2020-03-24T16:49:25Z</time>
</trkpt>
<trkpt lat="34.252193" lon="135.400000">
 <ele>85.6</ele>
 <time>2020-03-24T16:49:25Z</time>
</trkpt>
<trkpt lat="34.252202" lon="135.400193">
 <ele>87.7</ele>
 <time>2020-03-24T16:49:25Z</time>
</trkpt>
<trkpt lat="34.252202" lon="135.400311">
 <ele>88.4</ele>
 <time>2020-03-24T16:49:25Z</time>
</trkpt>
<trkpt lat="34.252185" lon="135.400418">
 <ele>89.4</ele>
 <time>2020-03-24T16:49:26Z</time>
</trkpt>
<trkpt lat="34.252167" lon="135.400536">
 <ele>89.8</ele>
 <time>2020-03-24T16:49:26Z</time>
</trkpt>
<trkpt lat="34.252167" lon="135.400654">
 <ele>89.9</ele>
 <time>2020-03-24T16:49:26Z</time>
</trkpt>
<trkpt lat="34.252167" lon="135.400719">
 <ele>90.6</ele>
 <time>2020-03-24T16:49:26Z</time>
</trkpt>
<trkpt lat="34.252116" lon="135.400858">
 <ele>90.6</ele>
 <time>2020-03-24T16:49:26Z</time>
</trkpt>
<trkpt lat="34.252090" lon="135.400923">
 <ele>91.7</ele>
 <time>2020-03-24T16:49:26Z</time>
</trkpt>
<trkpt lat="34.252107" lon="135.401062">
 <ele>93.8</ele>
 <time>2020-03-24T16:49:26Z</time>
</trkpt>
<trkpt lat="34.252133" lon="135.401234">
 <ele>95.6</ele>
 <time>2020-03-24T16:49:26Z</time>
</trkpt>
<trkpt lat="34.252185" lon="135.401438">
 <ele>97.2</ele>
 <time>2020-03-24T16:49:27Z</time>
</trkpt>
<trkpt lat="34.252253" lon="135.401534">
 <ele>95.7</ele>
 <time>2020-03-24T16:49:27Z</time>
</trkpt>
<trkpt lat="34.252288" lon="135.401620">
 <ele>96.2</ele>
 <time>2020-03-24T16:49:27Z</time>
</trkpt>
<trkpt lat="34.252305" lon="135.401674">
 <ele>97.6</ele>
 <time>2020-03-24T16:49:27Z</time>
</trkpt>
<trkpt lat="34.252219" lon="135.401684">
 <ele>99.2</ele>
 <time>2020-03-24T16:49:27Z</time>
</trkpt>
<trkpt lat="34.252159" lon="135.401684">
 <ele>101.4</ele>
 <time>2020-03-24T16:49:27Z</time>
</trkpt>
<trkpt lat="34.252124" lon="135.401513">
 <ele>102.4</ele>
 <time>2020-03-24T16:49:27Z</time>
</trkpt>
<trkpt lat="34.252082" lon="135.401416">
 <ele>102.6</ele>
 <time>2020-03-24T16:49:27Z</time>
</trkpt>
<trkpt lat="34.251953" lon="135.401341">
 <ele>106</ele>
 <time>2020-03-24T16:49:28Z</time>
</trkpt>
<trkpt lat="34.251764" lon="135.401223">
 <ele>108.7</ele>
 <time>2020-03-24T16:49:28Z</time>
</trkpt>
<trkpt lat="34.251670" lon="135.401148">
 <ele>110.3</ele>
 <time>2020-03-24T16:49:28Z</time>
</trkpt>
<trkpt lat="34.251575" lon="135.401041">
 <ele>111.5</ele>
 <time>2020-03-24T16:49:28Z</time>
</trkpt>
<trkpt lat="34.251481" lon="135.400966">
 <ele>113.9</ele>
 <time>2020-03-24T16:49:28Z</time>
</trkpt>
<trkpt lat="34.251369" lon="135.400891">
 <ele>116.1</ele>
 <time>2020-03-24T16:49:28Z</time>
</trkpt>
<trkpt lat="34.251292" lon="135.400815">
 <ele>117.6</ele>
 <time>2020-03-24T16:49:28Z</time>
</trkpt>
<trkpt lat="34.251197" lon="135.400740">
 <ele>117.9</ele>
 <time>2020-03-24T16:49:29Z</time>
</trkpt>
<trkpt lat="34.251120" lon="135.400676">
 <ele>119.4</ele>
 <time>2020-03-24T16:49:29Z</time>
</trkpt>
<trkpt lat="34.251086" lon="135.400590">
 <ele>119.6</ele>
 <time>2020-03-24T16:49:29Z</time>
</trkpt>
<trkpt lat="34.251043" lon="135.400494">
 <ele>121.5</ele>
 <time>2020-03-24T16:49:29Z</time>
</trkpt>
<trkpt lat="34.250966" lon="135.400408">
 <ele>123.2</ele>
 <time>2020-03-24T16:49:29Z</time>
</trkpt>
<trkpt lat="34.250897" lon="135.400408">
 <ele>124.6</ele>
 <time>2020-03-24T16:49:29Z</time>
</trkpt>
<trkpt lat="34.250820" lon="135.400343">
 <ele>124</ele>
 <time>2020-03-24T16:49:29Z</time>
</trkpt>
<trkpt lat="34.250725" lon="135.400333">
 <ele>126.3</ele>
 <time>2020-03-24T16:49:29Z</time>
</trkpt>
<trkpt lat="34.250657" lon="135.400311">
 <ele>125.9</ele>
 <time>2020-03-24T16:49:30Z</time>
</trkpt>
<trkpt lat="34.250545" lon="135.400311">
 <ele>128.1</ele>
 <time>2020-03-24T16:49:30Z</time>
</trkpt>
<trkpt lat="34.250459" lon="135.400268">
 <ele>129</ele>
 <time>2020-03-24T16:49:30Z</time>
</trkpt>
<trkpt lat="34.250365" lon="135.400258">
 <ele>132.1</ele>
 <time>2020-03-24T16:49:30Z</time>
</trkpt>
<trkpt lat="34.250313" lon="135.400268">
 <ele>133</ele>
 <time>2020-03-24T16:49:30Z</time>
</trkpt>
<trkpt lat="34.250288" lon="135.400376">
 <ele>134.9</ele>
 <time>2020-03-24T16:49:30Z</time>
</trkpt>
<trkpt lat="34.250322" lon="135.400483">
 <ele>135.6</ele>
 <time>2020-03-24T16:49:30Z</time>
</trkpt>
<trkpt lat="34.250451" lon="135.400654">
 <ele>137.1</ele>
 <time>2020-03-24T16:49:30Z</time>
</trkpt>
<trkpt lat="34.250528" lon="135.400719">
 <ele>138.1</ele>
 <time>2020-03-24T16:49:31Z</time>
</trkpt>
<trkpt lat="34.250648" lon="135.400998">
 <ele>141.5</ele>
 <time>2020-03-24T16:49:31Z</time>
</trkpt>
<trkpt lat="34.250751" lon="135.401073">
 <ele>142.3</ele>
 <time>2020-03-24T16:49:31Z</time>
</trkpt>
<trkpt lat="34.250785" lon="135.401159">
 <ele>143</ele>
 <time>2020-03-24T16:49:31Z</time>
</trkpt>
<trkpt lat="34.250768" lon="135.401277">
 <ele>143.6</ele>
 <time>2020-03-24T16:49:31Z</time>
</trkpt>
<trkpt lat="34.250743" lon="135.401438">
 <ele>145.8</ele>
 <time>2020-03-24T16:49:31Z</time>
</trkpt>
<trkpt lat="34.250734" lon="135.401556">
 <ele>146.2</ele>
 <time>2020-03-24T16:49:31Z</time>
</trkpt>
<trkpt lat="34.250717" lon="135.401663">
 <ele>147.5</ele>
 <time>2020-03-24T16:49:31Z</time>
</trkpt>
<trkpt lat="34.250674" lon="135.401727">
 <ele>148.4</ele>
 <time>2020-03-24T16:49:32Z</time>
</trkpt>
<trkpt lat="34.250571" lon="135.401749">
 <ele>149.7</ele>
 <time>2020-03-24T16:49:32Z</time>
</trkpt>
<trkpt lat="34.250459" lon="135.401760">
 <ele>151.6</ele>
 <time>2020-03-24T16:49:32Z</time>
</trkpt>
<trkpt lat="34.250399" lon="135.401727">
 <ele>152.9</ele>
 <time>2020-03-24T16:49:32Z</time>
</trkpt>
<trkpt lat="34.250322" lon="135.401588">
 <ele>154.6</ele>
 <time>2020-03-24T16:49:32Z</time>
</trkpt>
<trkpt lat="34.250245" lon="135.401481">
 <ele>156.3</ele>
 <time>2020-03-24T16:49:32Z</time>
</trkpt>
<trkpt lat="34.250167" lon="135.401438">
 <ele>157.6</ele>
 <time>2020-03-24T16:49:32Z</time>
</trkpt>
<trkpt lat="34.250125" lon="135.401459">
 <ele>157.8</ele>
 <time>2020-03-24T16:49:32Z</time>
</trkpt>
<trkpt lat="34.250047" lon="135.401556">
 <ele>160.4</ele>
 <time>2020-03-24T16:49:33Z</time>
</trkpt>
<trkpt lat="34.249927" lon="135.401652">
 <ele>163.4</ele>
 <time>2020-03-24T16:49:33Z</time>
</trkpt>
<trkpt lat="34.249816" lon="135.401770">
 <ele>166.6</ele>
 <time>2020-03-24T16:49:33Z</time>
</trkpt>
<trkpt lat="34.249721" lon="135.401856">
 <ele>169</ele>
 <time>2020-03-24T16:49:33Z</time>
</trkpt>
<trkpt lat="34.249644" lon="135.401835">
 <ele>170.2</ele>
 <time>2020-03-24T16:49:33Z</time>
</trkpt>
<trkpt lat="34.249567" lon="135.401781">
 <ele>171.3</ele>
 <time>2020-03-24T16:49:33Z</time>
</trkpt>
<trkpt lat="34.249481" lon="135.401695">
 <ele>174.3</ele>
 <time>2020-03-24T16:49:33Z</time>
</trkpt>
<trkpt lat="34.249455" lon="135.401620">
 <ele>174.1</ele>
 <time>2020-03-24T16:49:34Z</time>
</trkpt>
<trkpt lat="34.249412" lon="135.401524">
 <ele>177.2</ele>
 <time>2020-03-24T16:49:34Z</time>
</trkpt>
<trkpt lat="34.249369" lon="135.401438">
 <ele>177.8</ele>
 <time>2020-03-24T16:49:34Z</time>
</trkpt>
<trkpt lat="34.249292" lon="135.401373">
 <ele>179.3</ele>
 <time>2020-03-24T16:49:34Z</time>
</trkpt>
<trkpt lat="34.249206" lon="135.401245">
 <ele>179.9</ele>
 <time>2020-03-24T16:49:34Z</time>
</trkpt>
<trkpt lat="34.249146" lon="135.401148">
 <ele>181.6</ele>
 <time>2020-03-24T16:49:34Z</time>
</trkpt>
<trkpt lat="34.249129" lon="135.401062">
 <ele>181.5</ele>
 <time>2020-03-24T16:49:34Z</time>
</trkpt>
<trkpt lat="34.249052" lon="135.400987">
 <ele>183.4</ele>
 <time>2020-03-24T16:49:34Z</time>
</trkpt>
<trkpt lat="34.248957" lon="135.400933">
 <ele>184.8</ele>
 <time>2020-03-24T16:49:35Z</time>
</trkpt>
<trkpt lat="34.248854" lon="135.400848">
 <ele>187.4</ele>
 <time>2020-03-24T16:49:35Z</time>
</trkpt>
<trkpt lat="34.248777" lon="135.400794">
 <ele>189.5</ele>
 <time>2020-03-24T16:49:35Z</time>
</trkpt>
<trkpt lat="34.248691" lon="135.400740">
 <ele>192.9</ele>
 <time>2020-03-24T16:49:35Z</time>
</trkpt>
<trkpt lat="34.248631" lon="135.400612">
 <ele>195.4</ele>
 <time>2020-03-24T16:49:35Z</time>
</trkpt>
<trkpt lat="34.248597" lon="135.400526">
 <ele>194.9</ele>
 <time>2020-03-24T16:49:35Z</time>
</trkpt>
<trkpt lat="34.248477" lon="135.400429">
 <ele>199.3</ele>
 <time>2020-03-24T16:49:35Z</time>
</trkpt>
<trkpt lat="34.248417" lon="135.400429">
 <ele>201.4</ele>
 <time>2020-03-24T16:49:35Z</time>
</trkpt>
<trkpt lat="34.248374" lon="135.400343">
 <ele>201.5</ele>
 <time>2020-03-24T16:49:36Z</time>
</trkpt>
<trkpt lat="34.248339" lon="135.400268">
 <ele>202</ele>
 <time>2020-03-24T16:49:36Z</time>
</trkpt>
<trkpt lat="34.248271" lon="135.400268">
 <ele>204.5</ele>
 <time>2020-03-24T16:49:36Z</time>
</trkpt>
<trkpt lat="34.248262" lon="135.400322">
 <ele>205.5</ele>
 <time>2020-03-24T16:49:36Z</time>
</trkpt>
<trkpt lat="34.248245" lon="135.400397">
 <ele>206.1</ele>
 <time>2020-03-24T16:49:36Z</time>
</trkpt>
<trkpt lat="34.248288" lon="135.400515">
 <ele>207.5</ele>
 <time>2020-03-24T16:49:36Z</time>
</trkpt>
<trkpt lat="34.248322" lon="135.400633">
 <ele>209.8</ele>
 <time>2020-03-24T16:49:36Z</time>
</trkpt>
<trkpt lat="34.248365" lon="135.400676">
 <ele>210.2</ele>
 <time>2020-03-24T16:49:37Z</time>
</trkpt>
<trkpt lat="34.248339" lon="135.400730">
 <ele>210.8</ele>
 <time>2020-03-24T16:49:37Z</time>
</trkpt>
<trkpt lat="34.248262" lon="135.400751">
 <ele>213.4</ele>
 <time>2020-03-24T16:49:37Z</time>
</trkpt>
<trkpt lat="34.248202" lon="135.400644">
 <ele>213.9</ele>
 <time>2020-03-24T16:49:37Z</time>
</trkpt>
<trkpt lat="34.248116" lon="135.400569">
 <ele>214.8</ele>
 <time>2020-03-24T16:49:37Z</time>
</trkpt>
<trkpt lat="34.248047" lon="135.400472">
 <ele>216.3</ele>
 <time>2020-03-24T16:49:37Z</time>
</trkpt>
<trkpt lat="34.247979" lon="135.400418">
 <ele>218.5</ele>
 <time>2020-03-24T16:49:37Z</time>
</trkpt>
<trkpt lat="34.247919" lon="135.400268">
 <ele>221.1</ele>
 <time>2020-03-24T16:49:37Z</time>
</trkpt>
<trkpt lat="34.247850" lon="135.400161">
 <ele>222.3</ele>
 <time>2020-03-24T16:49:38Z</time>
</trkpt>
<trkpt lat="34.247756" lon="135.400129">
 <ele>224.2</ele>
 <time>2020-03-24T16:49:38Z</time>
</trkpt>
<trkpt lat="34.247644" lon="135.400118">
 <ele>227</ele>
 <time>2020-03-24T16:49:38Z</time>
</trkpt>
<trkpt lat="34.247481" lon="135.400086">
 <ele>231.3</ele>
 <time>2020-03-24T16:49:38Z</time>
</trkpt>
<trkpt lat="34.247361" lon="135.399979">
 <ele>232.7</ele>
 <time>2020-03-24T16:49:38Z</time>
</trkpt>
<trkpt lat="34.247318" lon="135.399871">
 <ele>234.1</ele>
 <time>2020-03-24T16:49:38Z</time>
</trkpt>
<trkpt lat="34.247206" lon="135.399753">
 <ele>236.7</ele>
 <time>2020-03-24T16:49:38Z</time>
</trkpt>
<trkpt lat="34.247095" lon="135.399625">
 <ele>240</ele>
 <time>2020-03-24T16:49:38Z</time>
</trkpt>
<trkpt lat="34.247000" lon="135.399528">
 <ele>242.4</ele>
 <time>2020-03-24T16:49:39Z</time>
</trkpt>
<trkpt lat="34.246915" lon="135.399474">
 <ele>244.3</ele>
 <time>2020-03-24T16:49:39Z</time>
</trkpt>
<trkpt lat="34.246812" lon="135.399539">
 <ele>245.7</ele>
 <time>2020-03-24T16:49:39Z</time>
</trkpt>
<trkpt lat="34.246709" lon="135.399571">
 <ele>245.5</ele>
 <time>2020-03-24T16:49:39Z</time>
</trkpt>
<trkpt lat="34.246666" lon="135.399678">
 <ele>248.7</ele>
 <time>2020-03-24T16:49:39Z</time>
</trkpt>
<trkpt lat="34.246597" lon="135.399775">
 <ele>249.6</ele>
 <time>2020-03-24T16:49:39Z</time>
</trkpt>
<trkpt lat="34.246528" lon="135.399882">
 <ele>250.4</ele>
 <time>2020-03-24T16:49:39Z</time>
</trkpt>
<trkpt lat="34.246468" lon="135.399946">
 <ele>252</ele>
 <time>2020-03-24T16:49:40Z</time>
</trkpt>
<trkpt lat="34.246374" lon="135.399979">
 <ele>252.9</ele>
 <time>2020-03-24T16:49:40Z</time>
</trkpt>
<trkpt lat="34.246254" lon="135.400011">
 <ele>254.8</ele>
 <time>2020-03-24T16:49:40Z</time>
</trkpt>
<trkpt lat="34.246211" lon="135.400021">
 <ele>255.6</ele>
 <time>2020-03-24T16:49:40Z</time>
</trkpt>
<trkpt lat="34.246116" lon="135.400140">
 <ele>256.9</ele>
 <time>2020-03-24T16:49:40Z</time>
</trkpt>
<trkpt lat="34.246005" lon="135.400258">
 <ele>260.1</ele>
 <time>2020-03-24T16:49:40Z</time>
</trkpt>
<trkpt lat="34.245876" lon="135.400386">
 <ele>263.3</ele>
 <time>2020-03-24T16:49:40Z</time>
</trkpt>
<trkpt lat="34.245593" lon="135.400579">
 <ele>269.6</ele>
 <time>2020-03-24T16:49:40Z</time>
</trkpt>
<trkpt lat="34.245507" lon="135.400676">
 <ele>271.6</ele>
 <time>2020-03-24T16:49:41Z</time>
</trkpt>
<trkpt lat="34.245387" lon="135.400826">
 <ele>273.9</ele>
 <time>2020-03-24T16:49:41Z</time>
</trkpt>
<trkpt lat="34.245284" lon="135.400912">
 <ele>275.5</ele>
 <time>2020-03-24T16:49:41Z</time>
</trkpt>
<trkpt lat="34.245224" lon="135.400912">
 <ele>276.2</ele>
 <time>2020-03-24T16:49:41Z</time>
</trkpt>
<trkpt lat="34.245164" lon="135.400815">
 <ele>275.9</ele>
 <time>2020-03-24T16:49:41Z</time>
</trkpt>
<trkpt lat="34.245146" lon="135.400708">
 <ele>277.1</ele>
 <time>2020-03-24T16:49:41Z</time>
</trkpt>
<trkpt lat="34.245138" lon="135.400601">
 <ele>278.1</ele>
 <time>2020-03-24T16:49:41Z</time>
</trkpt>
<trkpt lat="34.245121" lon="135.400504">
 <ele>278.7</ele>
 <time>2020-03-24T16:49:41Z</time>
</trkpt>
<trkpt lat="34.245121" lon="135.400311">
 <ele>279.8</ele>
 <time>2020-03-24T16:49:42Z</time>
</trkpt>
<trkpt lat="34.245129" lon="135.400193">
 <ele>280.6</ele>
 <time>2020-03-24T16:49:42Z</time>
</trkpt>
<trkpt lat="34.245121" lon="135.400054">
 <ele>280.3</ele>
 <time>2020-03-24T16:49:42Z</time>
</trkpt>
<trkpt lat="34.245052" lon="135.399989">
 <ele>282.5</ele>
 <time>2020-03-24T16:49:42Z</time>
</trkpt>
<trkpt lat="34.244966" lon="135.399903">
 <ele>283.9</ele>
 <time>2020-03-24T16:49:42Z</time>
</trkpt>
<trkpt lat="34.244880" lon="135.399850">
 <ele>284.5</ele>
 <time>2020-03-24T16:49:42Z</time>
</trkpt>
<trkpt lat="34.244820" lon="135.399807">
 <ele>284.8</ele>
 <time>2020-03-24T16:49:42Z</time>
</trkpt>
<trkpt lat="34.244829" lon="135.399689">
 <ele>284.6</ele>
 <time>2020-03-24T16:49:43Z</time>
</trkpt>
<trkpt lat="34.244846" lon="135.399592">
 <ele>284.9</ele>
 <time>2020-03-24T16:49:43Z</time>
</trkpt>
<trkpt lat="34.244846" lon="135.399485">
 <ele>286.8</ele>
 <time>2020-03-24T16:49:43Z</time>
</trkpt>
<trkpt lat="34.244794" lon="135.399388">
 <ele>288.8</ele>
 <time>2020-03-24T16:49:43Z</time>
</trkpt>
<trkpt lat="34.244717" lon="135.399270">
 <ele>290.6</ele>
 <time>2020-03-24T16:49:43Z</time>
</trkpt>
<trkpt lat="34.244649" lon="135.399120">
 <ele>292.3</ele>
 <time>2020-03-24T16:49:43Z</time>
</trkpt>
<trkpt lat="34.244623" lon="135.398981">
 <ele>294.7</ele>
 <time>2020-03-24T16:49:43Z</time>
</trkpt>
<trkpt lat="34.244606" lon="135.398831">
 <ele>295.2</ele>
 <time>2020-03-24T16:49:43Z</time>
</trkpt>
<trkpt lat="34.244554" lon="135.398670">
 <ele>297.7</ele>
 <time>2020-03-24T16:49:44Z</time>
</trkpt>
<trkpt lat="34.244511" lon="135.398552">
 <ele>300.4</ele>
 <time>2020-03-24T16:49:44Z</time>
</trkpt>
<trkpt lat="34.244460" lon="135.398434">
 <ele>302.3</ele>
 <time>2020-03-24T16:49:44Z</time>
</trkpt>
<trkpt lat="34.244434" lon="135.398326">
 <ele>303.8</ele>
 <time>2020-03-24T16:49:44Z</time>
</trkpt>
<trkpt lat="34.244365" lon="135.398187">
 <ele>305.8</ele>
 <time>2020-03-24T16:49:44Z</time>
</trkpt>
<trkpt lat="34.244305" lon="135.398187">
 <ele>306.2</ele>
 <time>2020-03-24T16:49:44Z</time>
</trkpt>
<trkpt lat="34.244219" lon="135.398187">
 <ele>307.8</ele>
 <time>2020-03-24T16:49:44Z</time>
</trkpt>
<trkpt lat="34.244125" lon="135.398241">
 <ele>309.6</ele>
 <time>2020-03-24T16:49:44Z</time>
</trkpt>
<trkpt lat="34.244082" lon="135.398369">
 <ele>312</ele>
 <time>2020-03-24T16:49:45Z</time>
</trkpt>
<trkpt lat="34.244031" lon="135.398498">
 <ele>314.9</ele>
 <time>2020-03-24T16:49:45Z</time>
</trkpt>
<trkpt lat="34.243936" lon="135.398637">
 <ele>317.1</ele>
 <time>2020-03-24T16:49:45Z</time>
</trkpt>
<trkpt lat="34.243842" lon="135.398734">
 <ele>318.4</ele>
 <time>2020-03-24T16:49:45Z</time>
</trkpt>
<trkpt lat="34.243516" lon="135.398916">
 <ele>322</ele>
 <time>2020-03-24T16:49:45Z</time>
</trkpt>
<trkpt lat="34.243284" lon="135.399067">
 <ele>324.8</ele>
 <time>2020-03-24T16:49:45Z</time>
</trkpt>
<trkpt lat="34.243207" lon="135.399185">
 <ele>328.5</ele>
 <time>2020-03-24T16:49:45Z</time>
</trkpt>
<trkpt lat="34.243172" lon="135.399292">
 <ele>331.2</ele>
 <time>2020-03-24T16:49:46Z</time>
</trkpt>
<trkpt lat="34.243138" lon="135.399431">
 <ele>332.6</ele>
 <time>2020-03-24T16:49:46Z</time>
</trkpt>
<trkpt lat="34.243069" lon="135.399614">
 <ele>335.1</ele>
 <time>2020-03-24T16:49:46Z</time>
</trkpt>
<trkpt lat="34.243044" lon="135.399678">
 <ele>337</ele>
 <time>2020-03-24T16:49:46Z</time>
</trkpt>
<trkpt lat="34.242838" lon="135.399689">
 <ele>338.5</ele>
 <time>2020-03-24T16:49:46Z</time>
</trkpt>
<trkpt lat="34.242709" lon="135.399689">
 <ele>339.2</ele>
 <time>2020-03-24T16:49:46Z</time>
</trkpt>
<trkpt lat="34.242589" lon="135.399700">
 <ele>339.8</ele>
 <time>2020-03-24T16:49:46Z</time>
</trkpt>
<trkpt lat="34.242400" lon="135.399646">
 <ele>342.7</ele>
 <time>2020-03-24T16:49:46Z</time>
</trkpt>
<trkpt lat="34.242142" lon="135.399560">
 <ele>345</ele>
 <time>2020-03-24T16:49:47Z</time>
</trkpt>
<trkpt lat="34.241988" lon="135.399410">
 <ele>346.2</ele>
 <time>2020-03-24T16:49:47Z</time>
</trkpt>
<trkpt lat="34.241816" lon="135.399324">
 <ele>349.2</ele>
 <time>2020-03-24T16:49:47Z</time>
</trkpt>
<trkpt lat="34.241713" lon="135.399303">
 <ele>350.8</ele>
 <time>2020-03-24T16:49:47Z</time>
</trkpt>
<trkpt lat="34.241670" lon="135.399195">
 <ele>350.8</ele>
 <time>2020-03-24T16:49:47Z</time>
</trkpt>
<trkpt lat="34.241619" lon="135.399045">
 <ele>353.5</ele>
 <time>2020-03-24T16:49:47Z</time>
</trkpt>
<trkpt lat="34.241584" lon="135.398895">
 <ele>353.8</ele>
 <time>2020-03-24T16:49:47Z</time>
</trkpt>
<trkpt lat="34.241516" lon="135.398777">
 <ele>355.3</ele>
 <time>2020-03-24T16:49:47Z</time>
</trkpt>
<trkpt lat="34.241464" lon="135.398670">
 <ele>355.6</ele>
 <time>2020-03-24T16:49:48Z</time>
</trkpt>
<trkpt lat="34.241387" lon="135.398573">
 <ele>355.4</ele>
 <time>2020-03-24T16:49:48Z</time>
</trkpt>
<trkpt lat="34.241327" lon="135.398552">
 <ele>355.2</ele>
 <time>2020-03-24T16:49:48Z</time>
</trkpt>
<trkpt lat="34.241250" lon="135.398530">
 <ele>357.5</ele>
 <time>2020-03-24T16:49:48Z</time>
</trkpt>
<trkpt lat="34.241164" lon="135.398401">
 <ele>357.1</ele>
 <time>2020-03-24T16:49:48Z</time>
</trkpt>
<trkpt lat="34.241112" lon="135.398241">
 <ele>355</ele>
 <time>2020-03-24T16:49:48Z</time>
</trkpt>
<trkpt lat="34.241061" lon="135.398144">
 <ele>357.4</ele>
 <time>2020-03-24T16:49:48Z</time>
</trkpt>
<trkpt lat="34.240949" lon="135.398037">
 <ele>363</ele>
 <time>2020-03-24T16:49:49Z</time>
</trkpt>
<trkpt lat="34.240863" lon="135.397919">
 <ele>368.8</ele>
 <time>2020-03-24T16:49:49Z</time>
</trkpt>
<trkpt lat="34.240735" lon="135.397790">
 <ele>372.5</ele>
 <time>2020-03-24T16:49:49Z</time>
</trkpt>
<trkpt lat="34.240632" lon="135.397747">
 <ele>376.9</ele>
 <time>2020-03-24T16:49:49Z</time>
</trkpt>
<trkpt lat="34.240512" lon="135.397640">
 <ele>375.1</ele>
 <time>2020-03-24T16:49:49Z</time>
</trkpt>
<trkpt lat="34.240400" lon="135.397597">
 <ele>377.9</ele>
 <time>2020-03-24T16:49:49Z</time>
</trkpt>
<trkpt lat="34.240288" lon="135.397543">
 <ele>381</ele>
 <time>2020-03-24T16:49:49Z</time>
</trkpt>
<trkpt lat="34.240263" lon="135.397575">
 <ele>380.9</ele>
 <time>2020-03-24T16:49:49Z</time>
</trkpt>
<trkpt lat="34.240314" lon="135.397704">
 <ele>384.6</ele>
 <time>2020-03-24T16:49:50Z</time>
</trkpt>
<trkpt lat="34.240374" lon="135.397779">
 <ele>384.5</ele>
 <time>2020-03-24T16:49:50Z</time>
</trkpt>
<trkpt lat="34.240391" lon="135.397854">
 <ele>387.2</ele>
 <time>2020-03-24T16:49:50Z</time>
</trkpt>
<trkpt lat="34.240263" lon="135.397962">
 <ele>391.2</ele>
 <time>2020-03-24T16:49:50Z</time>
</trkpt>
<trkpt lat="34.240160" lon="135.398026">
 <ele>393.8</ele>
 <time>2020-03-24T16:49:50Z</time>
</trkpt>
<trkpt lat="34.240031" lon="135.398101">
 <ele>396.2</ele>
 <time>2020-03-24T16:49:50Z</time>
</trkpt>
<trkpt lat="34.239962" lon="135.398144">
 <ele>397.3</ele>
 <time>2020-03-24T16:49:50Z</time>
</trkpt>
<trkpt lat="34.239885" lon="135.398080">
 <ele>397.9</ele>
 <time>2020-03-24T16:49:50Z</time>
</trkpt>
<trkpt lat="34.239773" lon="135.397940">
 <ele>400</ele>
 <time>2020-03-24T16:49:51Z</time>
</trkpt>
<trkpt lat="34.239705" lon="135.397822">
 <ele>400.9</ele>
 <time>2020-03-24T16:49:51Z</time>
</trkpt>
<trkpt lat="34.239585" lon="135.397758">
 <ele>400.7</ele>
 <time>2020-03-24T16:49:51Z</time>
</trkpt>
<trkpt lat="34.239421" lon="135.397779">
 <ele>399.3</ele>
 <time>2020-03-24T16:49:51Z</time>
</trkpt>
<trkpt lat="34.239198" lon="135.397758">
 <ele>399.3</ele>
 <time>2020-03-24T16:49:51Z</time>
</trkpt>
<trkpt lat="34.239121" lon="135.397693">
 <ele>400.5</ele>
 <time>2020-03-24T16:49:51Z</time>
</trkpt>
<trkpt lat="34.239070" lon="135.397575">
 <ele>400.7</ele>
 <time>2020-03-24T16:49:51Z</time>
</trkpt>
<trkpt lat="34.239052" lon="135.397457">
 <ele>402.3</ele>
 <time>2020-03-24T16:49:52Z</time>
</trkpt>
<trkpt lat="34.239052" lon="135.397307">
 <ele>402.8</ele>
 <time>2020-03-24T16:49:52Z</time>
</trkpt>
<trkpt lat="34.239027" lon="135.397189">
 <ele>402.3</ele>
 <time>2020-03-24T16:49:52Z</time>
</trkpt>
<trkpt lat="34.238975" lon="135.397093">
 <ele>404.6</ele>
 <time>2020-03-24T16:49:52Z</time>
</trkpt>
<trkpt lat="34.238898" lon="135.397039">
 <ele>406.4</ele>
 <time>2020-03-24T16:49:52Z</time>
</trkpt>
<trkpt lat="34.238778" lon="135.396953">
 <ele>407.7</ele>
 <time>2020-03-24T16:49:52Z</time>
</trkpt>
<trkpt lat="34.238632" lon="135.397007">
 <ele>411.1</ele>
 <time>2020-03-24T16:49:52Z</time>
</trkpt>
<trkpt lat="34.238529" lon="135.397039">
 <ele>413.6</ele>
 <time>2020-03-24T16:49:52Z</time>
</trkpt>
<trkpt lat="34.238537" lon="135.397243">
 <ele>415.6</ele>
 <time>2020-03-24T16:49:53Z</time>
</trkpt>
<trkpt lat="34.238572" lon="135.397436">
 <ele>418.3</ele>
 <time>2020-03-24T16:49:53Z</time>
</trkpt>
<trkpt lat="34.238606" lon="135.397586">
 <ele>420.2</ele>
 <time>2020-03-24T16:49:53Z</time>
</trkpt>
<trkpt lat="34.238623" lon="135.397683">
 <ele>421.4</ele>
 <time>2020-03-24T16:49:53Z</time>
</trkpt>
<trkpt lat="34.238615" lon="135.397758">
 <ele>422.4</ele>
 <time>2020-03-24T16:49:53Z</time>
</trkpt>
<trkpt lat="34.238580" lon="135.397844">
 <ele>423.8</ele>
 <time>2020-03-24T16:49:53Z</time>
</trkpt>
<trkpt lat="34.238503" lon="135.397897">
 <ele>425</ele>
 <time>2020-03-24T16:49:53Z</time>
</trkpt>
<trkpt lat="34.238460" lon="135.397897">
 <ele>425.7</ele>
 <time>2020-03-24T16:49:53Z</time>
</trkpt>
<trkpt lat="34.238452" lon="135.397801">
 <ele>424.3</ele>
 <time>2020-03-24T16:49:54Z</time>
</trkpt>
<trkpt lat="34.238452" lon="135.397715">
 <ele>423.8</ele>
 <time>2020-03-24T16:49:54Z</time>
</trkpt>
<trkpt lat="34.238417" lon="135.397597">
 <ele>424</ele>
 <time>2020-03-24T16:49:54Z</time>
</trkpt>
<trkpt lat="34.238340" lon="135.397457">
 <ele>428.5</ele>
 <time>2020-03-24T16:49:54Z</time>
</trkpt>
<trkpt lat="34.238254" lon="135.397371">
 <ele>428.7</ele>
 <time>2020-03-24T16:49:54Z</time>
</trkpt>
<trkpt lat="34.238211" lon="135.397232">
 <ele>427.7</ele>
 <time>2020-03-24T16:49:54Z</time>
</trkpt>
<trkpt lat="34.238160" lon="135.397157">
 <ele>430</ele>
 <time>2020-03-24T16:49:54Z</time>
</trkpt>
<trkpt lat="34.238125" lon="135.397071">
 <ele>430.8</ele>
 <time>2020-03-24T16:49:55Z</time>
</trkpt>
<trkpt lat="34.238100" lon="135.396964">
 <ele>431</ele>
 <time>2020-03-24T16:49:55Z</time>
</trkpt>
<trkpt lat="34.238040" lon="135.396964">
 <ele>431.6</ele>
 <time>2020-03-24T16:49:55Z</time>
</trkpt>
<trkpt lat="34.237988" lon="135.396932">
 <ele>431.1</ele>
 <time>2020-03-24T16:49:55Z</time>
</trkpt>
<trkpt lat="34.237971" lon="135.397243">
 <ele>433.9</ele>
 <time>2020-03-24T16:49:55Z</time>
</trkpt>
<trkpt lat="34.237911" lon="135.397329">
 <ele>436.7</ele>
 <time>2020-03-24T16:49:55Z</time>
</trkpt>
<trkpt lat="34.237851" lon="135.397404">
 <ele>438.7</ele>
 <time>2020-03-24T16:49:55Z</time>
</trkpt>
<trkpt lat="34.237799" lon="135.397468">
 <ele>439.4</ele>
 <time>2020-03-24T16:49:55Z</time>
</trkpt>
<trkpt lat="34.237774" lon="135.397575">
 <ele>439.3</ele>
 <time>2020-03-24T16:49:56Z</time>
</trkpt>
<trkpt lat="34.237774" lon="135.397661">
 <ele>439.5</ele>
 <time>2020-03-24T16:49:56Z</time>
</trkpt>
<trkpt lat="34.237748" lon="135.397779">
 <ele>439.5</ele>
 <time>2020-03-24T16:49:56Z</time>
</trkpt>
<trkpt lat="34.237696" lon="135.397844">
 <ele>438.3</ele>
 <time>2020-03-24T16:49:56Z</time>
</trkpt>
<trkpt lat="34.237662" lon="135.397940">
 <ele>438.7</ele>
 <time>2020-03-24T16:49:56Z</time>
</trkpt>
<trkpt lat="34.237662" lon="135.398026">
 <ele>439.6</ele>
 <time>2020-03-24T16:49:56Z</time>
</trkpt>
<trkpt lat="34.237705" lon="135.398155">
 <ele>443.8</ele>
 <time>2020-03-24T16:49:56Z</time>
</trkpt>
<trkpt lat="34.237748" lon="135.398283">
 <ele>443.9</ele>
 <time>2020-03-24T16:49:56Z</time>
</trkpt>
<trkpt lat="34.237713" lon="135.398348">
 <ele>449</ele>
 <time>2020-03-24T16:49:57Z</time>
</trkpt>
<trkpt lat="34.237619" lon="135.398337">
 <ele>451.8</ele>
 <time>2020-03-24T16:49:57Z</time>
</trkpt>
<trkpt lat="34.237559" lon="135.398359">
 <ele>454.1</ele>
 <time>2020-03-24T16:49:57Z</time>
</trkpt>
<trkpt lat="34.237516" lon="135.398477">
 <ele>460.1</ele>
 <time>2020-03-24T16:49:57Z</time>
</trkpt>
<trkpt lat="34.237465" lon="135.398595">
 <ele>462.3</ele>
 <time>2020-03-24T16:49:57Z</time>
</trkpt>
<trkpt lat="34.237465" lon="135.398755">
 <ele>465.6</ele>
 <time>2020-03-24T16:49:57Z</time>
</trkpt>
<trkpt lat="34.237490" lon="135.398895">
 <ele>468.9</ele>
 <time>2020-03-24T16:49:57Z</time>
</trkpt>
<trkpt lat="34.237499" lon="135.398992">
 <ele>473.3</ele>
 <time>2020-03-24T16:49:57Z</time>
</trkpt>
<trkpt lat="34.237465" lon="135.399110">
 <ele>474.4</ele>
 <time>2020-03-24T16:49:58Z</time>
</trkpt>
<trkpt lat="34.237379" lon="135.399260">
 <ele>478.3</ele>
 <time>2020-03-24T16:49:58Z</time>
</trkpt>
<trkpt lat="34.237319" lon="135.399421">
 <ele>481</ele>
 <time>2020-03-24T16:49:58Z</time>
</trkpt>
<trkpt lat="34.237336" lon="135.399517">
 <ele>481.8</ele>
 <time>2020-03-24T16:49:58Z</time>
</trkpt>
<trkpt lat="34.237319" lon="135.399592">
 <ele>482.8</ele>
 <time>2020-03-24T16:49:58Z</time>
</trkpt>
<trkpt lat="34.237293" lon="135.399657">
 <ele>483.2</ele>
 <time>2020-03-24T16:49:58Z</time>
</trkpt>
<trkpt lat="34.237276" lon="135.399775">
 <ele>483.9</ele>
 <time>2020-03-24T16:49:58Z</time>
</trkpt>
<trkpt lat="34.237276" lon="135.399861">
 <ele>485</ele>
 <time>2020-03-24T16:49:58Z</time>
</trkpt>
<trkpt lat="34.237259" lon="135.399989">
 <ele>486.3</ele>
 <time>2020-03-24T16:49:59Z</time>
</trkpt>
<trkpt lat="34.237250" lon="135.400107">
 <ele>487.1</ele>
 <time>2020-03-24T16:49:59Z</time>
</trkpt>
<trkpt lat="34.237241" lon="135.400225">
 <ele>487.4</ele>
 <time>2020-03-24T16:49:59Z</time>
</trkpt>
<trkpt lat="34.237336" lon="135.400504">
 <ele>497.2</ele>
 <time>2020-03-24T16:49:59Z</time>
</trkpt>
<trkpt lat="34.237362" lon="135.400665">
 <ele>502</ele>
 <time>2020-03-24T16:49:59Z</time>
</trkpt>
<trkpt lat="34.237422" lon="135.400901">
 <ele>508.9</ele>
 <time>2020-03-24T16:49:59Z</time>
</trkpt>
<trkpt lat="34.237447" lon="135.401094">
 <ele>515.3</ele>
 <time>2020-03-24T16:49:59Z</time>
</trkpt>
<trkpt lat="34.237473" lon="135.401287">
 <ele>520.5</ele>
 <time>2020-03-24T16:50:00Z</time>
</trkpt>
<trkpt lat="34.237525" lon="135.401406">
 <ele>524.3</ele>
 <time>2020-03-24T16:50:00Z</time>
</trkpt>
<trkpt lat="34.237550" lon="135.401566">
 <ele>527.6</ele>
 <time>2020-03-24T16:50:00Z</time>
</trkpt>
<trkpt lat="34.237568" lon="135.401631">
 <ele>529.1</ele>
 <time>2020-03-24T16:50:00Z</time>
</trkpt>
<trkpt lat="34.237585" lon="135.401749">
 <ele>531.6</ele>
 <time>2020-03-24T16:50:00Z</time>
</trkpt>
<trkpt lat="34.237576" lon="135.402081">
 <ele>539</ele>
 <time>2020-03-24T16:50:00Z</time>
</trkpt>
<trkpt lat="34.237593" lon="135.402157">
 <ele>540</ele>
 <time>2020-03-24T16:50:00Z</time>
</trkpt>
<trkpt lat="34.237628" lon="135.402264">
 <ele>544.9</ele>
 <time>2020-03-24T16:50:00Z</time>
</trkpt>
<trkpt lat="34.237653" lon="135.402360">
 <ele>548.4</ele>
 <time>2020-03-24T16:50:01Z</time>
</trkpt>
<trkpt lat="34.237662" lon="135.402489">
 <ele>551.4</ele>
 <time>2020-03-24T16:50:01Z</time>
</trkpt>
<trkpt lat="34.237671" lon="135.402575">
 <ele>553.1</ele>
 <time>2020-03-24T16:50:01Z</time>
</trkpt>
<trkpt lat="34.237722" lon="135.402693">
 <ele>555.6</ele>
 <time>2020-03-24T16:50:01Z</time>
</trkpt>
<trkpt lat="34.237765" lon="135.402747">
 <ele>556.2</ele>
 <time>2020-03-24T16:50:01Z</time>
</trkpt>
<trkpt lat="34.237731" lon="135.402897">
 <ele>560</ele>
 <time>2020-03-24T16:50:01Z</time>
</trkpt>
<trkpt lat="34.237722" lon="135.402983">
 <ele>562.8</ele>
 <time>2020-03-24T16:50:01Z</time>
</trkpt>
<trkpt lat="34.237696" lon="135.403058">
 <ele>565.2</ele>
 <time>2020-03-24T16:50:02Z</time>
</trkpt>
<trkpt lat="34.237696" lon="135.403219">
 <ele>569.2</ele>
 <time>2020-03-24T16:50:02Z</time>
</trkpt>
<trkpt lat="34.237696" lon="135.403326">
 <ele>573</ele>
 <time>2020-03-24T16:50:02Z</time>
</trkpt>
<trkpt lat="34.237696" lon="135.403401">
 <ele>574.1</ele>
 <time>2020-03-24T16:50:02Z</time>
</trkpt>
<trkpt lat="34.237679" lon="135.403476">
 <ele>576.3</ele>
 <time>2020-03-24T16:50:02Z</time>
</trkpt>
<trkpt lat="34.237679" lon="135.403541">
 <ele>577.6</ele>
 <time>2020-03-24T16:50:02Z</time>
</trkpt>
<trkpt lat="34.237679" lon="135.403626">
 <ele>579.2</ele>
 <time>2020-03-24T16:50:02Z</time>
</trkpt>
<trkpt lat="34.237645" lon="135.403712">
 <ele>581</ele>
 <time>2020-03-24T16:50:02Z</time>
</trkpt>
<trkpt lat="34.237619" lon="135.403830">
 <ele>585.4</ele>
 <time>2020-03-24T16:50:03Z</time>
</trkpt>
<trkpt lat="34.237593" lon="135.403927">
 <ele>592.1</ele>
 <time>2020-03-24T16:50:03Z</time>
</trkpt>
<trkpt lat="34.237533" lon="135.403991">
 <ele>594.9</ele>
 <time>2020-03-24T16:50:03Z</time>
</trkpt>
<trkpt lat="34.237482" lon="135.404023">
 <ele>597.6</ele>
 <time>2020-03-24T16:50:03Z</time>
</trkpt>
<trkpt lat="34.237465" lon="135.404109">
 <ele>601.1</ele>
 <time>2020-03-24T16:50:03Z</time>
</trkpt>
<trkpt lat="34.237465" lon="135.404399">
 <ele>608.1</ele>
 <time>2020-03-24T16:50:03Z</time>
</trkpt>
<trkpt lat="34.237550" lon="135.404528">
 <ele>610</ele>
 <time>2020-03-24T16:50:03Z</time>
</trkpt>
<trkpt lat="34.237610" lon="135.404560">
 <ele>611</ele>
 <time>2020-03-24T16:50:03Z</time>
</trkpt>
<trkpt lat="34.237662" lon="135.404613">
 <ele>612.9</ele>
 <time>2020-03-24T16:50:04Z</time>
</trkpt>
<trkpt lat="34.237713" lon="135.404613">
 <ele>613.8</ele>
 <time>2020-03-24T16:50:04Z</time>
</trkpt>
<trkpt lat="34.237791" lon="135.404635">
 <ele>615.5</ele>
 <time>2020-03-24T16:50:04Z</time>
</trkpt>
<trkpt lat="34.237842" lon="135.404678">
 <ele>616.7</ele>
 <time>2020-03-24T16:50:04Z</time>
</trkpt>
<trkpt lat="34.237868" lon="135.404742">
 <ele>618.6</ele>
 <time>2020-03-24T16:50:04Z</time>
</trkpt>
<trkpt lat="34.237911" lon="135.404785">
 <ele>618.8</ele>
 <time>2020-03-24T16:50:04Z</time>
</trkpt>
<trkpt lat="34.237868" lon="135.404742">
 <ele>618.6</ele>
 <time>2020-03-24T16:50:04Z</time>
</trkpt>
<trkpt lat="34.237842" lon="135.404678">
 <ele>616.7</ele>
 <time>2020-03-24T16:50:05Z</time>
</trkpt>
<trkpt lat="34.237791" lon="135.404635">
 <ele>615.5</ele>
 <time>2020-03-24T16:50:05Z</time>
</trkpt>
<trkpt lat="34.237713" lon="135.404613">
 <ele>613.8</ele>
 <time>2020-03-24T16:50:05Z</time>
</trkpt>
<trkpt lat="34.237662" lon="135.404613">
 <ele>612.9</ele>
 <time>2020-03-24T16:50:05Z</time>
</trkpt>
<trkpt lat="34.237610" lon="135.404560">
 <ele>611</ele>
 <time>2020-03-24T16:50:05Z</time>
</trkpt>
<trkpt lat="34.237550" lon="135.404528">
 <ele>610</ele>
 <time>2020-03-24T16:50:05Z</time>
</trkpt>
<trkpt lat="34.237465" lon="135.404399">
 <ele>608.1</ele>
 <time>2020-03-24T16:50:05Z</time>
</trkpt>
<trkpt lat="34.237465" lon="135.404109">
 <ele>601.1</ele>
 <time>2020-03-24T16:50:05Z</time>
</trkpt>
<trkpt lat="34.237482" lon="135.404023">
 <ele>597.6</ele>
 <time>2020-03-24T16:50:06Z</time>
</trkpt>
<trkpt lat="34.237533" lon="135.403991">
 <ele>594.9</ele>
 <time>2020-03-24T16:50:06Z</time>
</trkpt>
<trkpt lat="34.237593" lon="135.403927">
 <ele>592.1</ele>
 <time>2020-03-24T16:50:06Z</time>
</trkpt>
<trkpt lat="34.237619" lon="135.403830">
 <ele>585.4</ele>
 <time>2020-03-24T16:50:06Z</time>
</trkpt>
<trkpt lat="34.237645" lon="135.403712">
 <ele>581</ele>
 <time>2020-03-24T16:50:06Z</time>
</trkpt>
<trkpt lat="34.237679" lon="135.403626">
 <ele>579.2</ele>
 <time>2020-03-24T16:50:06Z</time>
</trkpt>
<trkpt lat="34.237679" lon="135.403541">
 <ele>577.6</ele>
 <time>2020-03-24T16:50:06Z</time>
</trkpt>
<trkpt lat="34.237679" lon="135.403476">
 <ele>576.3</ele>
 <time>2020-03-24T16:50:06Z</time>
</trkpt>
<trkpt lat="34.237696" lon="135.403401">
 <ele>574.1</ele>
 <time>2020-03-24T16:50:07Z</time>
</trkpt>
<trkpt lat="34.237696" lon="135.403326">
 <ele>573</ele>
 <time>2020-03-24T16:50:07Z</time>
</trkpt>
<trkpt lat="34.237696" lon="135.403219">
 <ele>569.2</ele>
 <time>2020-03-24T16:50:07Z</time>
</trkpt>
<trkpt lat="34.237696" lon="135.403058">
 <ele>565.2</ele>
 <time>2020-03-24T16:50:07Z</time>
</trkpt>
<trkpt lat="34.237722" lon="135.402983">
 <ele>562.8</ele>
 <time>2020-03-24T16:50:07Z</time>
</trkpt>
<trkpt lat="34.237731" lon="135.402897">
 <ele>560</ele>
 <time>2020-03-24T16:50:07Z</time>
</trkpt>
<trkpt lat="34.237765" lon="135.402747">
 <ele>556.2</ele>
 <time>2020-03-24T16:50:07Z</time>
</trkpt>
<trkpt lat="34.237722" lon="135.402693">
 <ele>555.6</ele>
 <time>2020-03-24T16:50:08Z</time>
</trkpt>
<trkpt lat="34.237671" lon="135.402575">
 <ele>553.1</ele>
 <time>2020-03-24T16:50:08Z</time>
</trkpt>
<trkpt lat="34.237662" lon="135.402489">
 <ele>551.4</ele>
 <time>2020-03-24T16:50:08Z</time>
</trkpt>
<trkpt lat="34.237653" lon="135.402360">
 <ele>548.4</ele>
 <time>2020-03-24T16:50:08Z</time>
</trkpt>
<trkpt lat="34.237628" lon="135.402264">
 <ele>544.9</ele>
 <time>2020-03-24T16:50:08Z</time>
</trkpt>
<trkpt lat="34.237593" lon="135.402157">
 <ele>540</ele>
 <time>2020-03-24T16:50:08Z</time>
</trkpt>
<trkpt lat="34.237576" lon="135.402081">
 <ele>539</ele>
 <time>2020-03-24T16:50:08Z</time>
</trkpt>
<trkpt lat="34.237585" lon="135.401749">
 <ele>531.6</ele>
 <time>2020-03-24T16:50:08Z</time>
</trkpt>
<trkpt lat="34.237568" lon="135.401631">
 <ele>529.1</ele>
 <time>2020-03-24T16:50:09Z</time>
</trkpt>
<trkpt lat="34.237550" lon="135.401566">
 <ele>527.6</ele>
 <time>2020-03-24T16:50:09Z</time>
</trkpt>
<trkpt lat="34.237525" lon="135.401406">
 <ele>524.3</ele>
 <time>2020-03-24T16:50:09Z</time>
</trkpt>
<trkpt lat="34.237473" lon="135.401287">
 <ele>520.5</ele>
 <time>2020-03-24T16:50:09Z</time>
</trkpt>
<trkpt lat="34.237447" lon="135.401094">
 <ele>515.3</ele>
 <time>2020-03-24T16:50:09Z</time>
</trkpt>
<trkpt lat="34.237422" lon="135.400901">
 <ele>508.9</ele>
 <time>2020-03-24T16:50:09Z</time>
</trkpt>
<trkpt lat="34.237362" lon="135.400665">
 <ele>502</ele>
 <time>2020-03-24T16:50:09Z</time>
</trkpt>
<trkpt lat="34.237336" lon="135.400504">
 <ele>497.2</ele>
 <time>2020-03-24T16:50:10Z</time>
</trkpt>
<trkpt lat="34.237241" lon="135.400225">
 <ele>487.4</ele>
 <time>2020-03-24T16:50:10Z</time>
</trkpt>
<trkpt lat="34.237250" lon="135.400107">
 <ele>487.1</ele>
 <time>2020-03-24T16:50:10Z</time>
</trkpt>
<trkpt lat="34.237259" lon="135.399989">
 <ele>486.3</ele>
 <time>2020-03-24T16:50:10Z</time>
</trkpt>
<trkpt lat="34.237276" lon="135.399861">
 <ele>485</ele>
 <time>2020-03-24T16:50:10Z</time>
</trkpt>
<trkpt lat="34.237276" lon="135.399775">
 <ele>483.9</ele>
 <time>2020-03-24T16:50:10Z</time>
</trkpt>
<trkpt lat="34.237293" lon="135.399657">
 <ele>483.2</ele>
 <time>2020-03-24T16:50:10Z</time>
</trkpt>
<trkpt lat="34.237319" lon="135.399592">
 <ele>482.8</ele>
 <time>2020-03-24T16:50:10Z</time>
</trkpt>
<trkpt lat="34.237336" lon="135.399517">
 <ele>481.8</ele>
 <time>2020-03-24T16:50:11Z</time>
</trkpt>
<trkpt lat="34.237319" lon="135.399421">
 <ele>481</ele>
 <time>2020-03-24T16:50:11Z</time>
</trkpt>
<trkpt lat="34.237379" lon="135.399260">
 <ele>478.3</ele>
 <time>2020-03-24T16:50:11Z</time>
</trkpt>
<trkpt lat="34.237465" lon="135.399110">
 <ele>474.4</ele>
 <time>2020-03-24T16:50:11Z</time>
</trkpt>
<trkpt lat="34.237499" lon="135.398992">
 <ele>473.3</ele>
 <time>2020-03-24T16:50:11Z</time>
</trkpt>
<trkpt lat="34.237490" lon="135.398895">
 <ele>468.9</ele>
 <time>2020-03-24T16:50:11Z</time>
</trkpt>
<trkpt lat="34.237465" lon="135.398755">
 <ele>465.6</ele>
 <time>2020-03-24T16:50:11Z</time>
</trkpt>
<trkpt lat="34.237465" lon="135.398595">
 <ele>462.3</ele>
 <time>2020-03-24T16:50:11Z</time>
</trkpt>
<trkpt lat="34.237516" lon="135.398477">
 <ele>460.1</ele>
 <time>2020-03-24T16:50:12Z</time>
</trkpt>
<trkpt lat="34.237559" lon="135.398359">
 <ele>454.1</ele>
 <time>2020-03-24T16:50:12Z</time>
</trkpt>
<trkpt lat="34.237619" lon="135.398337">
 <ele>451.8</ele>
 <time>2020-03-24T16:50:12Z</time>
</trkpt>
<trkpt lat="34.237713" lon="135.398348">
 <ele>449</ele>
 <time>2020-03-24T16:50:12Z</time>
</trkpt>
<trkpt lat="34.237748" lon="135.398283">
 <ele>443.9</ele>
 <time>2020-03-24T16:50:12Z</time>
</trkpt>
<trkpt lat="34.237705" lon="135.398155">
 <ele>443.8</ele>
 <time>2020-03-24T16:50:12Z</time>
</trkpt>
<trkpt lat="34.237662" lon="135.398026">
 <ele>439.6</ele>
 <time>2020-03-24T16:50:12Z</time>
</trkpt>
<trkpt lat="34.237662" lon="135.397940">
 <ele>438.7</ele>
 <time>2020-03-24T16:50:12Z</time>
</trkpt>
<trkpt lat="34.237696" lon="135.397844">
 <ele>438.3</ele>
 <time>2020-03-24T16:50:13Z</time>
</trkpt>
<trkpt lat="34.237748" lon="135.397779">
 <ele>439.5</ele>
 <time>2020-03-24T16:50:13Z</time>
</trkpt>
<trkpt lat="34.237774" lon="135.397661">
 <ele>439.5</ele>
 <time>2020-03-24T16:50:13Z</time>
</trkpt>
<trkpt lat="34.237774" lon="135.397575">
 <ele>439.3</ele>
 <time>2020-03-24T16:50:13Z</time>
</trkpt>
<trkpt lat="34.237799" lon="135.397468">
 <ele>439.4</ele>
 <time>2020-03-24T16:50:13Z</time>
</trkpt>
<trkpt lat="34.237851" lon="135.397404">
 <ele>438.7</ele>
 <time>2020-03-24T16:50:13Z</time>
</trkpt>
<trkpt lat="34.237911" lon="135.397329">
 <ele>436.7</ele>
 <time>2020-03-24T16:50:13Z</time>
</trkpt>
<trkpt lat="34.237971" lon="135.397243">
 <ele>433.9</ele>
 <time>2020-03-24T16:50:14Z</time>
</trkpt>
<trkpt lat="34.237988" lon="135.396932">
 <ele>431.1</ele>
 <time>2020-03-24T16:50:14Z</time>
</trkpt>
<trkpt lat="34.238040" lon="135.396964">
 <ele>431.6</ele>
 <time>2020-03-24T16:50:14Z</time>
</trkpt>
<trkpt lat="34.238100" lon="135.396964">
 <ele>431</ele>
 <time>2020-03-24T16:50:14Z</time>
</trkpt>
<trkpt lat="34.238125" lon="135.397071">
 <ele>430.8</ele>
 <time>2020-03-24T16:50:14Z</time>
</trkpt>
<trkpt lat="34.238160" lon="135.397157">
 <ele>430</ele>
 <time>2020-03-24T16:50:14Z</time>
</trkpt>
<trkpt lat="34.238211" lon="135.397232">
 <ele>427.7</ele>
 <time>2020-03-24T16:50:14Z</time>
</trkpt>
<trkpt lat="34.238254" lon="135.397371">
 <ele>428.7</ele>
 <time>2020-03-24T16:50:14Z</time>
</trkpt>
<trkpt lat="34.238340" lon="135.397457">
 <ele>428.5</ele>
 <time>2020-03-24T16:50:15Z</time>
</trkpt>
<trkpt lat="34.238417" lon="135.397597">
 <ele>424</ele>
 <time>2020-03-24T16:50:15Z</time>
</trkpt>
<trkpt lat="34.238452" lon="135.397715">
 <ele>423.8</ele>
 <time>2020-03-24T16:50:15Z</time>
</trkpt>
<trkpt lat="34.238452" lon="135.397801">
 <ele>424.3</ele>
 <time>2020-03-24T16:50:15Z</time>
</trkpt>
<trkpt lat="34.238460" lon="135.397897">
 <ele>425.7</ele>
 <time>2020-03-24T16:50:15Z</time>
</trkpt>
<trkpt lat="34.238503" lon="135.397897">
 <ele>425</ele>
 <time>2020-03-24T16:50:15Z</time>
</trkpt>
<trkpt lat="34.238580" lon="135.397844">
 <ele>423.8</ele>
 <time>2020-03-24T16:50:15Z</time>
</trkpt>
<trkpt lat="34.238615" lon="135.397758">
 <ele>422.4</ele>
 <time>2020-03-24T16:50:16Z</time>
</trkpt>
<trkpt lat="34.238623" lon="135.397683">
 <ele>421.4</ele>
 <time>2020-03-24T16:50:16Z</time>
</trkpt>
<trkpt lat="34.238606" lon="135.397586">
 <ele>420.2</ele>
 <time>2020-03-24T16:50:16Z</time>
</trkpt>
<trkpt lat="34.238572" lon="135.397436">
 <ele>418.3</ele>
 <time>2020-03-24T16:50:16Z</time>
</trkpt>
<trkpt lat="34.238537" lon="135.397243">
 <ele>415.6</ele>
 <time>2020-03-24T16:50:16Z</time>
</trkpt>
<trkpt lat="34.238529" lon="135.397039">
 <ele>413.6</ele>
 <time>2020-03-24T16:50:16Z</time>
</trkpt>
<trkpt lat="34.238632" lon="135.397007">
 <ele>411.1</ele>
 <time>2020-03-24T16:50:16Z</time>
</trkpt>
<trkpt lat="34.238778" lon="135.396953">
 <ele>407.7</ele>
 <time>2020-03-24T16:50:16Z</time>
</trkpt>
<trkpt lat="34.238898" lon="135.397039">
 <ele>406.4</ele>
 <time>2020-03-24T16:50:17Z</time>
</trkpt>
<trkpt lat="34.238975" lon="135.397093">
 <ele>404.6</ele>
 <time>2020-03-24T16:50:17Z</time>
</trkpt>
<trkpt lat="34.239027" lon="135.397189">
 <ele>402.3</ele>
 <time>2020-03-24T16:50:17Z</time>
</trkpt>
<trkpt lat="34.239052" lon="135.397307">
 <ele>402.8</ele>
 <time>2020-03-24T16:50:17Z</time>
</trkpt>
<trkpt lat="34.239052" lon="135.397457">
 <ele>402.3</ele>
 <time>2020-03-24T16:50:17Z</time>
</trkpt>
<trkpt lat="34.239070" lon="135.397575">
 <ele>400.7</ele>
 <time>2020-03-24T16:50:17Z</time>
</trkpt>
<trkpt lat="34.239121" lon="135.397693">
 <ele>400.5</ele>
 <time>2020-03-24T16:50:17Z</time>
</trkpt>
<trkpt lat="34.239198" lon="135.397758">
 <ele>399.3</ele>
 <time>2020-03-24T16:50:18Z</time>
</trkpt>
<trkpt lat="34.239421" lon="135.397779">
 <ele>399.3</ele>
 <time>2020-03-24T16:50:18Z</time>
</trkpt>
<trkpt lat="34.239585" lon="135.397758">
 <ele>400.7</ele>
 <time>2020-03-24T16:50:18Z</time>
</trkpt>
<trkpt lat="34.239705" lon="135.397822">
 <ele>400.9</ele>
 <time>2020-03-24T16:50:18Z</time>
</trkpt>
<trkpt lat="34.239773" lon="135.397940">
 <ele>400</ele>
 <time>2020-03-24T16:50:18Z</time>
</trkpt>
<trkpt lat="34.239885" lon="135.398080">
 <ele>397.9</ele>
 <time>2020-03-24T16:50:18Z</time>
</trkpt>
<trkpt lat="34.239962" lon="135.398144">
 <ele>397.3</ele>
 <time>2020-03-24T16:50:18Z</time>
</trkpt>
<trkpt lat="34.240031" lon="135.398101">
 <ele>396.2</ele>
 <time>2020-03-24T16:50:18Z</time>
</trkpt>
<trkpt lat="34.240160" lon="135.398026">
 <ele>393.8</ele>
 <time>2020-03-24T16:50:19Z</time>
</trkpt>
<trkpt lat="34.240263" lon="135.397962">
 <ele>391.2</ele>
 <time>2020-03-24T16:50:19Z</time>
</trkpt>
<trkpt lat="34.240391" lon="135.397854">
 <ele>387.2</ele>
 <time>2020-03-24T16:50:19Z</time>
</trkpt>
<trkpt lat="34.240374" lon="135.397779">
 <ele>384.5</ele>
 <time>2020-03-24T16:50:19Z</time>
</trkpt>
<trkpt lat="34.240314" lon="135.397704">
 <ele>384.6</ele>
 <time>2020-03-24T16:50:19Z</time>
</trkpt>
<trkpt lat="34.240263" lon="135.397575">
 <ele>380.9</ele>
 <time>2020-03-24T16:50:19Z</time>
</trkpt>
<trkpt lat="34.240288" lon="135.397543">
 <ele>381</ele>
 <time>2020-03-24T16:50:19Z</time>
</trkpt>
<trkpt lat="34.240400" lon="135.397597">
 <ele>377.9</ele>
 <time>2020-03-24T16:50:19Z</time>
</trkpt>
<trkpt lat="34.240512" lon="135.397640">
 <ele>375.1</ele>
 <time>2020-03-24T16:50:20Z</time>
</trkpt>
<trkpt lat="34.240632" lon="135.397747">
 <ele>376.9</ele>
 <time>2020-03-24T16:50:20Z</time>
</trkpt>
<trkpt lat="34.240735" lon="135.397790">
 <ele>372.5</ele>
 <time>2020-03-24T16:50:20Z</time>
</trkpt>
<trkpt lat="34.240863" lon="135.397919">
 <ele>368.8</ele>
 <time>2020-03-24T16:50:20Z</time>
</trkpt>
<trkpt lat="34.240949" lon="135.398037">
 <ele>363</ele>
 <time>2020-03-24T16:50:20Z</time>
</trkpt>
<trkpt lat="34.241061" lon="135.398144">
 <ele>357.4</ele>
 <time>2020-03-24T16:50:20Z</time>
</trkpt>
<trkpt lat="34.241112" lon="135.398241">
 <ele>355</ele>
 <time>2020-03-24T16:50:20Z</time>
</trkpt>
<trkpt lat="34.241164" lon="135.398401">
 <ele>357.1</ele>
 <time>2020-03-24T16:50:20Z</time>
</trkpt>
<trkpt lat="34.241250" lon="135.398530">
 <ele>357.5</ele>
 <time>2020-03-24T16:50:21Z</time>
</trkpt>
<trkpt lat="34.241327" lon="135.398552">
 <ele>355.2</ele>
 <time>2020-03-24T16:50:21Z</time>
</trkpt>
<trkpt lat="34.241387" lon="135.398573">
 <ele>355.4</ele>
 <time>2020-03-24T16:50:21Z</time>
</trkpt>
<trkpt lat="34.241464" lon="135.398670">
 <ele>355.6</ele>
 <time>2020-03-24T16:50:21Z</time>
</trkpt>
<trkpt lat="34.241516" lon="135.398777">
 <ele>355.3</ele>
 <time>2020-03-24T16:50:21Z</time>
</trkpt>
<trkpt lat="34.241584" lon="135.398895">
 <ele>353.8</ele>
 <time>2020-03-24T16:50:21Z</time>
</trkpt>
<trkpt lat="34.241619" lon="135.399045">
 <ele>353.5</ele>
 <time>2020-03-24T16:50:21Z</time>
</trkpt>
<trkpt lat="34.241670" lon="135.399195">
 <ele>350.8</ele>
 <time>2020-03-24T16:50:22Z</time>
</trkpt>
<trkpt lat="34.241713" lon="135.399303">
 <ele>350.8</ele>
 <time>2020-03-24T16:50:22Z</time>
</trkpt>
<trkpt lat="34.241816" lon="135.399324">
 <ele>349.2</ele>
 <time>2020-03-24T16:50:22Z</time>
</trkpt>
<trkpt lat="34.241988" lon="135.399410">
 <ele>346.2</ele>
 <time>2020-03-24T16:50:22Z</time>
</trkpt>
<trkpt lat="34.242142" lon="135.399560">
 <ele>345</ele>
 <time>2020-03-24T16:50:22Z</time>
</trkpt>
<trkpt lat="34.242400" lon="135.399646">
 <ele>342.7</ele>
 <time>2020-03-24T16:50:22Z</time>
</trkpt>
<trkpt lat="34.242589" lon="135.399700">
 <ele>339.8</ele>
 <time>2020-03-24T16:50:22Z</time>
</trkpt>
<trkpt lat="34.242709" lon="135.399689">
 <ele>339.2</ele>
 <time>2020-03-24T16:50:22Z</time>
</trkpt>
<trkpt lat="34.242838" lon="135.399689">
 <ele>338.5</ele>
 <time>2020-03-24T16:50:23Z</time>
</trkpt>
<trkpt lat="34.243044" lon="135.399678">
 <ele>337</ele>
 <time>2020-03-24T16:50:23Z</time>
</trkpt>
<trkpt lat="34.243069" lon="135.399614">
 <ele>335.1</ele>
 <time>2020-03-24T16:50:23Z</time>
</trkpt>
<trkpt lat="34.243138" lon="135.399431">
 <ele>332.6</ele>
 <time>2020-03-24T16:50:23Z</time>
</trkpt>
<trkpt lat="34.243172" lon="135.399292">
 <ele>331.2</ele>
 <time>2020-03-24T16:50:23Z</time>
</trkpt>
<trkpt lat="34.243207" lon="135.399185">
 <ele>328.5</ele>
 <time>2020-03-24T16:50:23Z</time>
</trkpt>
<trkpt lat="34.243284" lon="135.399067">
 <ele>324.8</ele>
 <time>2020-03-24T16:50:23Z</time>
</trkpt>
<trkpt lat="34.243516" lon="135.398916">
 <ele>322</ele>
 <time>2020-03-24T16:50:24Z</time>
</trkpt>
<trkpt lat="34.243842" lon="135.398734">
 <ele>318.4</ele>
 <time>2020-03-24T16:50:24Z</time>
</trkpt>
<trkpt lat="34.243936" lon="135.398637">
 <ele>317.1</ele>
 <time>2020-03-24T16:50:24Z</time>
</trkpt>
<trkpt lat="34.244031" lon="135.398498">
 <ele>314.9</ele>
 <time>2020-03-24T16:50:24Z</time>
</trkpt>
<trkpt lat="34.244082" lon="135.398369">
 <ele>312</ele>
 <time>2020-03-24T16:50:24Z</time>
</trkpt>
<trkpt lat="34.244125" lon="135.398241">
 <ele>309.6</ele>
 <time>2020-03-24T16:50:24Z</time>
</trkpt>
<trkpt lat="34.244219" lon="135.398187">
 <ele>307.8</ele>
 <time>2020-03-24T16:50:24Z</time>
</trkpt>
<trkpt lat="34.244305" lon="135.398187">
 <ele>306.2</ele>
 <time>2020-03-24T16:50:24Z</time>
</trkpt>
<trkpt lat="34.244365" lon="135.398187">
 <ele>305.8</ele>
 <time>2020-03-24T16:50:25Z</time>
</trkpt>
<trkpt lat="34.244434" lon="135.398326">
 <ele>303.8</ele>
 <time>2020-03-24T16:50:25Z</time>
</trkpt>
<trkpt lat="34.244460" lon="135.398434">
 <ele>302.3</ele>
 <time>2020-03-24T16:50:25Z</time>
</trkpt>
<trkpt lat="34.244511" lon="135.398552">
 <ele>300.4</ele>
 <time>2020-03-24T16:50:25Z</time>
</trkpt>
<trkpt lat="34.244554" lon="135.398670">
 <ele>297.7</ele>
 <time>2020-03-24T16:50:25Z</time>
</trkpt>
<trkpt lat="34.244606" lon="135.398831">
 <ele>295.2</ele>
 <time>2020-03-24T16:50:25Z</time>
</trkpt>
<trkpt lat="34.244623" lon="135.398981">
 <ele>294.7</ele>
 <time>2020-03-24T16:50:25Z</time>
</trkpt>
<trkpt lat="34.244649" lon="135.399120">
 <ele>292.3</ele>
 <time>2020-03-24T16:50:25Z</time>
</trkpt>
<trkpt lat="34.244717" lon="135.399270">
 <ele>290.6</ele>
 <time>2020-03-24T16:50:26Z</time>
</trkpt>
<trkpt lat="34.244794" lon="135.399388">
 <ele>288.8</ele>
 <time>2020-03-24T16:50:26Z</time>
</trkpt>
<trkpt lat="34.244846" lon="135.399485">
 <ele>286.8</ele>
 <time>2020-03-24T16:50:26Z</time>
</trkpt>
<trkpt lat="34.244846" lon="135.399592">
 <ele>284.9</ele>
 <time>2020-03-24T16:50:26Z</time>
</trkpt>
<trkpt lat="34.244829" lon="135.399689">
 <ele>284.6</ele>
 <time>2020-03-24T16:50:26Z</time>
</trkpt>
<trkpt lat="34.244820" lon="135.399807">
 <ele>284.8</ele>
 <time>2020-03-24T16:50:26Z</time>
</trkpt>
<trkpt lat="34.244880" lon="135.399850">
 <ele>284.5</ele>
 <time>2020-03-24T16:50:26Z</time>
</trkpt>
<trkpt lat="34.244966" lon="135.399903">
 <ele>283.9</ele>
 <time>2020-03-24T16:50:27Z</time>
</trkpt>
<trkpt lat="34.245052" lon="135.399989">
 <ele>282.5</ele>
 <time>2020-03-24T16:50:27Z</time>
</trkpt>
<trkpt lat="34.245121" lon="135.400054">
 <ele>280.3</ele>
 <time>2020-03-24T16:50:27Z</time>
</trkpt>
<trkpt lat="34.245129" lon="135.400193">
 <ele>280.6</ele>
 <time>2020-03-24T16:50:27Z</time>
</trkpt>
<trkpt lat="34.245121" lon="135.400311">
 <ele>279.8</ele>
 <time>2020-03-24T16:50:27Z</time>
</trkpt>
<trkpt lat="34.245121" lon="135.400504">
 <ele>278.7</ele>
 <time>2020-03-24T16:50:27Z</time>
</trkpt>
<trkpt lat="34.245138" lon="135.400601">
 <ele>278.1</ele>
 <time>2020-03-24T16:50:27Z</time>
</trkpt>
<trkpt lat="34.245146" lon="135.400708">
 <ele>277.1</ele>
 <time>2020-03-24T16:50:27Z</time>
</trkpt>
<trkpt lat="34.245164" lon="135.400815">
 <ele>275.9</ele>
 <time>2020-03-24T16:50:28Z</time>
</trkpt>
<trkpt lat="34.245224" lon="135.400912">
 <ele>276.2</ele>
 <time>2020-03-24T16:50:28Z</time>
</trkpt>
<trkpt lat="34.245284" lon="135.400912">
 <ele>275.5</ele>
 <time>2020-03-24T16:50:28Z</time>
</trkpt>
<trkpt lat="34.245387" lon="135.400826">
 <ele>273.9</ele>
 <time>2020-03-24T16:50:28Z</time>
</trkpt>
<trkpt lat="34.245507" lon="135.400676">
 <ele>271.6</ele>
 <time>2020-03-24T16:50:28Z</time>
</trkpt>
<trkpt lat="34.245593" lon="135.400579">
 <ele>269.6</ele>
 <time>2020-03-24T16:50:28Z</time>
</trkpt>
<trkpt lat="34.245876" lon="135.400386">
 <ele>263.3</ele>
 <time>2020-03-24T16:50:28Z</time>
</trkpt>
<trkpt lat="34.246005" lon="135.400258">
 <ele>260.1</ele>
 <time>2020-03-24T16:50:29Z</time>
</trkpt>
<trkpt lat="34.246116" lon="135.400140">
 <ele>256.9</ele>
 <time>2020-03-24T16:50:29Z</time>
</trkpt>
<trkpt lat="34.246211" lon="135.400021">
 <ele>255.6</ele>
 <time>2020-03-24T16:50:29Z</time>
</trkpt>
<trkpt lat="34.246254" lon="135.400011">
 <ele>254.8</ele>
 <time>2020-03-24T16:50:29Z</time>
</trkpt>
<trkpt lat="34.246374" lon="135.399979">
 <ele>252.9</ele>
 <time>2020-03-24T16:50:29Z</time>
</trkpt>
<trkpt lat="34.246468" lon="135.399946">
 <ele>252</ele>
 <time>2020-03-24T16:50:29Z</time>
</trkpt>
<trkpt lat="34.246528" lon="135.399882">
 <ele>250.4</ele>
 <time>2020-03-24T16:50:29Z</time>
</trkpt>
<trkpt lat="34.246597" lon="135.399775">
 <ele>249.6</ele>
 <time>2020-03-24T16:50:29Z</time>
</trkpt>
<trkpt lat="34.246666" lon="135.399678">
 <ele>248.7</ele>
 <time>2020-03-24T16:50:30Z</time>
</trkpt>
<trkpt lat="34.246709" lon="135.399571">
 <ele>245.5</ele>
 <time>2020-03-24T16:50:30Z</time>
</trkpt>
<trkpt lat="34.246812" lon="135.399539">
 <ele>245.7</ele>
 <time>2020-03-24T16:50:30Z</time>
</trkpt>
<trkpt lat="34.246915" lon="135.399474">
 <ele>244.3</ele>
 <time>2020-03-24T16:50:30Z</time>
</trkpt>
<trkpt lat="34.247000" lon="135.399528">
 <ele>242.4</ele>
 <time>2020-03-24T16:50:30Z</time>
</trkpt>
<trkpt lat="34.247095" lon="135.399625">
 <ele>240</ele>
 <time>2020-03-24T16:50:30Z</time>
</trkpt>
<trkpt lat="34.247206" lon="135.399753">
 <ele>236.7</ele>
 <time>2020-03-24T16:50:30Z</time>
</trkpt>
<trkpt lat="34.247318" lon="135.399871">
 <ele>234.1</ele>
 <time>2020-03-24T16:50:30Z</time>
</trkpt>
<trkpt lat="34.247361" lon="135.399979">
 <ele>232.7</ele>
 <time>2020-03-24T16:50:31Z</time>
</trkpt>
<trkpt lat="34.247481" lon="135.400086">
 <ele>231.3</ele>
 <time>2020-03-24T16:50:31Z</time>
</trkpt>
<trkpt lat="34.247644" lon="135.400118">
 <ele>227</ele>
 <time>2020-03-24T16:50:31Z</time>
</trkpt>
<trkpt lat="34.247756" lon="135.400129">
 <ele>224.2</ele>
 <time>2020-03-24T16:50:31Z</time>
</trkpt>
<trkpt lat="34.247850" lon="135.400161">
 <ele>222.3</ele>
 <time>2020-03-24T16:50:31Z</time>
</trkpt>
<trkpt lat="34.247919" lon="135.400268">
 <ele>221.1</ele>
 <time>2020-03-24T16:50:31Z</time>
</trkpt>
<trkpt lat="34.247979" lon="135.400418">
 <ele>218.5</ele>
 <time>2020-03-24T16:50:31Z</time>
</trkpt>
<trkpt lat="34.248047" lon="135.400472">
 <ele>216.3</ele>
 <time>2020-03-24T16:50:32Z</time>
</trkpt>
<trkpt lat="34.248116" lon="135.400569">
 <ele>214.8</ele>
 <time>2020-03-24T16:50:32Z</time>
</trkpt>
<trkpt lat="34.248202" lon="135.400644">
 <ele>213.9</ele>
 <time>2020-03-24T16:50:32Z</time>
</trkpt>
<trkpt lat="34.248262" lon="135.400751">
 <ele>213.4</ele>
 <time>2020-03-24T16:50:32Z</time>
</trkpt>
<trkpt lat="34.248339" lon="135.400730">
 <ele>210.8</ele>
 <time>2020-03-24T16:50:32Z</time>
</trkpt>
<trkpt lat="34.248365" lon="135.400676">
 <ele>210.2</ele>
 <time>2020-03-24T16:50:32Z</time>
</trkpt>
<trkpt lat="34.248322" lon="135.400633">
 <ele>209.8</ele>
 <time>2020-03-24T16:50:32Z</time>
</trkpt>
<trkpt lat="34.248288" lon="135.400515">
 <ele>207.5</ele>
 <time>2020-03-24T16:50:32Z</time>
</trkpt>
<trkpt lat="34.248245" lon="135.400397">
 <ele>206.1</ele>
 <time>2020-03-24T16:50:33Z</time>
</trkpt>
<trkpt lat="34.248262" lon="135.400322">
 <ele>205.5</ele>
 <time>2020-03-24T16:50:33Z</time>
</trkpt>
<trkpt lat="34.248271" lon="135.400268">
 <ele>204.5</ele>
 <time>2020-03-24T16:50:33Z</time>
</trkpt>
<trkpt lat="34.248339" lon="135.400268">
 <ele>202</ele>
 <time>2020-03-24T16:50:33Z</time>
</trkpt>
<trkpt lat="34.248374" lon="135.400343">
 <ele>201.5</ele>
 <time>2020-03-24T16:50:33Z</time>
</trkpt>
<trkpt lat="34.248417" lon="135.400429">
 <ele>201.4</ele>
 <time>2020-03-24T16:50:33Z</time>
</trkpt>
<trkpt lat="34.248477" lon="135.400429">
 <ele>199.3</ele>
 <time>2020-03-24T16:50:33Z</time>
</trkpt>
<trkpt lat="34.248597" lon="135.400526">
 <ele>194.9</ele>
 <time>2020-03-24T16:50:33Z</time>
</trkpt>
<trkpt lat="34.248631" lon="135.400612">
 <ele>195.4</ele>
 <time>2020-03-24T16:50:34Z</time>
</trkpt>
<trkpt lat="34.248691" lon="135.400740">
 <ele>192.9</ele>
 <time>2020-03-24T16:50:34Z</time>
</trkpt>
<trkpt lat="34.248777" lon="135.400794">
 <ele>189.5</ele>
 <time>2020-03-24T16:50:34Z</time>
</trkpt>
<trkpt lat="34.248854" lon="135.400848">
 <ele>187.4</ele>
 <time>2020-03-24T16:50:34Z</time>
</trkpt>
<trkpt lat="34.248957" lon="135.400933">
 <ele>184.8</ele>
 <time>2020-03-24T16:50:34Z</time>
</trkpt>
<trkpt lat="34.249052" lon="135.400987">
 <ele>183.4</ele>
 <time>2020-03-24T16:50:34Z</time>
</trkpt>
<trkpt lat="34.249129" lon="135.401062">
 <ele>181.5</ele>
 <time>2020-03-24T16:50:34Z</time>
</trkpt>
<trkpt lat="34.249146" lon="135.401148">
 <ele>181.6</ele>
 <time>2020-03-24T16:50:34Z</time>
</trkpt>
<trkpt lat="34.249206" lon="135.401245">
 <ele>179.9</ele>
 <time>2020-03-24T16:50:35Z</time>
</trkpt>
<trkpt lat="34.249292" lon="135.401373">
 <ele>179.3</ele>
 <time>2020-03-24T16:50:35Z</time>
</trkpt>
<trkpt lat="34.249369" lon="135.401438">
 <ele>177.8</ele>
 <time>2020-03-24T16:50:35Z</time>
</trkpt>
<trkpt lat="34.249412" lon="135.401524">
 <ele>177.2</ele>
 <time>2020-03-24T16:50:35Z</time>
</trkpt>
<trkpt lat="34.249455" lon="135.401620">
 <ele>174.1</ele>
 <time>2020-03-24T16:50:35Z</time>
</trkpt>
<trkpt lat="34.249481" lon="135.401695">
 <ele>174.3</ele>
 <time>2020-03-24T16:50:35Z</time>
</trkpt>
<trkpt lat="34.249567" lon="135.401781">
 <ele>171.3</ele>
 <time>2020-03-24T16:50:35Z</time>
</trkpt>
<trkpt lat="34.249644" lon="135.401835">
 <ele>170.2</ele>
 <time>2020-03-24T16:50:36Z</time>
</trkpt>
<trkpt lat="34.249721" lon="135.401856">
 <ele>169</ele>
 <time>2020-03-24T16:50:36Z</time>
</trkpt>
<trkpt lat="34.249816" lon="135.401770">
 <ele>166.6</ele>
 <time>2020-03-24T16:50:36Z</time>
</trkpt>
<trkpt lat="34.249927" lon="135.401652">
 <ele>163.4</ele>
 <time>2020-03-24T16:50:36Z</time>
</trkpt>
<trkpt lat="34.250047" lon="135.401556">
 <ele>160.4</ele>
 <time>2020-03-24T16:50:36Z</time>
</trkpt>
<trkpt lat="34.250125" lon="135.401459">
 <ele>157.8</ele>
 <time>2020-03-24T16:50:36Z</time>
</trkpt>
<trkpt lat="34.250167" lon="135.401438">
 <ele>157.6</ele>
 <time>2020-03-24T16:50:36Z</time>
</trkpt>
<trkpt lat="34.250245" lon="135.401481">
 <ele>156.3</ele>
 <time>2020-03-24T16:50:36Z</time>
</trkpt>
<trkpt lat="34.250322" lon="135.401588">
 <ele>154.6</ele>
 <time>2020-03-24T16:50:37Z</time>
</trkpt>
<trkpt lat="34.250399" lon="135.401727">
 <ele>152.9</ele>
 <time>2020-03-24T16:50:37Z</time>
</trkpt>
<trkpt lat="34.250459" lon="135.401760">
 <ele>151.6</ele>
 <time>2020-03-24T16:50:37Z</time>
</trkpt>
<trkpt lat="34.250571" lon="135.401749">
 <ele>149.7</ele>
 <time>2020-03-24T16:50:37Z</time>
</trkpt>
<trkpt lat="34.250674" lon="135.401727">
 <ele>148.4</ele>
 <time>2020-03-24T16:50:37Z</time>
</trkpt>
<trkpt lat="34.250717" lon="135.401663">
 <ele>147.5</ele>
 <time>2020-03-24T16:50:37Z</time>
</trkpt>
<trkpt lat="34.250734" lon="135.401556">
 <ele>146.2</ele>
 <time>2020-03-24T16:50:37Z</time>
</trkpt>
<trkpt lat="34.250743" lon="135.401438">
 <ele>145.8</ele>
 <time>2020-03-24T16:50:37Z</time>
</trkpt>
<trkpt lat="34.250768" lon="135.401277">
 <ele>143.6</ele>
 <time>2020-03-24T16:50:38Z</time>
</trkpt>
<trkpt lat="34.250785" lon="135.401159">
 <ele>143</ele>
 <time>2020-03-24T16:50:38Z</time>
</trkpt>
<trkpt lat="34.250751" lon="135.401073">
 <ele>142.3</ele>
 <time>2020-03-24T16:50:38Z</time>
</trkpt>
<trkpt lat="34.250648" lon="135.400998">
 <ele>141.5</ele>
 <time>2020-03-24T16:50:38Z</time>
</trkpt>
<trkpt lat="34.250528" lon="135.400719">
 <ele>138.1</ele>
 <time>2020-03-24T16:50:38Z</time>
</trkpt>
<trkpt lat="34.250451" lon="135.400654">
 <ele>137.1</ele>
 <time>2020-03-24T16:50:38Z</time>
</trkpt>
<trkpt lat="34.250322" lon="135.400483">
 <ele>135.6</ele>
 <time>2020-03-24T16:50:38Z</time>
</trkpt>
<trkpt lat="34.250288" lon="135.400376">
 <ele>134.9</ele>
 <time>2020-03-24T16:50:39Z</time>
</trkpt>
<trkpt lat="34.250313" lon="135.400268">
 <ele>133</ele>
 <time>2020-03-24T16:50:39Z</time>
</trkpt>
<trkpt lat="34.250365" lon="135.400258">
 <ele>132.1</ele>
 <time>2020-03-24T16:50:39Z</time>
</trkpt>
<trkpt lat="34.250459" lon="135.400268">
 <ele>129</ele>
 <time>2020-03-24T16:50:39Z</time>
</trkpt>
<trkpt lat="34.250545" lon="135.400311">
 <ele>128.1</ele>
 <time>2020-03-24T16:50:39Z</time>
</trkpt>
<trkpt lat="34.250657" lon="135.400311">
 <ele>125.9</ele>
 <time>2020-03-24T16:50:39Z</time>
</trkpt>
<trkpt lat="34.250725" lon="135.400333">
 <ele>126.3</ele>
 <time>2020-03-24T16:50:39Z</time>
</trkpt>
<trkpt lat="34.250820" lon="135.400343">
 <ele>124</ele>
 <time>2020-03-24T16:50:39Z</time>
</trkpt>
<trkpt lat="34.250897" lon="135.400408">
 <ele>124.6</ele>
 <time>2020-03-24T16:50:40Z</time>
</trkpt>
<trkpt lat="34.250966" lon="135.400408">
 <ele>123.2</ele>
 <time>2020-03-24T16:50:40Z</time>
</trkpt>
<trkpt lat="34.251043" lon="135.400494">
 <ele>121.5</ele>
 <time>2020-03-24T16:50:40Z</time>
</trkpt>
<trkpt lat="34.251086" lon="135.400590">
 <ele>119.6</ele>
 <time>2020-03-24T16:50:40Z</time>
</trkpt>
<trkpt lat="34.251120" lon="135.400676">
 <ele>119.4</ele>
 <time>2020-03-24T16:50:40Z</time>
</trkpt>
<trkpt lat="34.251197" lon="135.400740">
 <ele>117.9</ele>
 <time>2020-03-24T16:50:40Z</time>
</trkpt>
<trkpt lat="34.251292" lon="135.400815">
 <ele>117.6</ele>
 <time>2020-03-24T16:50:40Z</time>
</trkpt>
<trkpt lat="34.251369" lon="135.400891">
 <ele>116.1</ele>
 <time>2020-03-24T16:50:40Z</time>
</trkpt>
<trkpt lat="34.251481" lon="135.400966">
 <ele>113.9</ele>
 <time>2020-03-24T16:50:41Z</time>
</trkpt>
<trkpt lat="34.251575" lon="135.401041">
 <ele>111.5</ele>
 <time>2020-03-24T16:50:41Z</time>
</trkpt>
<trkpt lat="34.251670" lon="135.401148">
 <ele>110.3</ele>
 <time>2020-03-24T16:50:41Z</time>
</trkpt>
<trkpt lat="34.251764" lon="135.401223">
 <ele>108.7</ele>
 <time>2020-03-24T16:50:41Z</time>
</trkpt>
<trkpt lat="34.251953" lon="135.401341">
 <ele>106</ele>
 <time>2020-03-24T16:50:41Z</time>
</trkpt>
<trkpt lat="34.252082" lon="135.401416">
 <ele>102.6</ele>
 <time>2020-03-24T16:50:41Z</time>
</trkpt>
<trkpt lat="34.252124" lon="135.401513">
 <ele>102.4</ele>
 <time>2020-03-24T16:50:41Z</time>
</trkpt>
<trkpt lat="34.252159" lon="135.401684">
 <ele>101.4</ele>
 <time>2020-03-24T16:50:41Z</time>
</trkpt>
<trkpt lat="34.252219" lon="135.401684">
 <ele>99.2</ele>
 <time>2020-03-24T16:50:42Z</time>
</trkpt>
<trkpt lat="34.252305" lon="135.401674">
 <ele>97.6</ele>
 <time>2020-03-24T16:50:42Z</time>
</trkpt>
<trkpt lat="34.252288" lon="135.401620">
 <ele>96.2</ele>
 <time>2020-03-24T16:50:42Z</time>
</trkpt>
<trkpt lat="34.252253" lon="135.401534">
 <ele>95.7</ele>
 <time>2020-03-24T16:50:42Z</time>
</trkpt>
<trkpt lat="34.252185" lon="135.401438">
 <ele>97.2</ele>
 <time>2020-03-24T16:50:42Z</time>
</trkpt>
<trkpt lat="34.252133" lon="135.401234">
 <ele>95.6</ele>
 <time>2020-03-24T16:50:42Z</time>
</trkpt>
<trkpt lat="34.252107" lon="135.401062">
 <ele>93.8</ele>
 <time>2020-03-24T16:50:42Z</time>
</trkpt>
<trkpt lat="34.252090" lon="135.400923">
 <ele>91.7</ele>
 <time>2020-03-24T16:50:43Z</time>
</trkpt>
<trkpt lat="34.252116" lon="135.400858">
 <ele>90.6</ele>
 <time>2020-03-24T16:50:43Z</time>
</trkpt>
<trkpt lat="34.252167" lon="135.400719">
 <ele>90.6</ele>
 <time>2020-03-24T16:50:43Z</time>
</trkpt>
<trkpt lat="34.252167" lon="135.400654">
 <ele>89.9</ele>
 <time>2020-03-24T16:50:43Z</time>
</trkpt>
<trkpt lat="34.252167" lon="135.400536">
 <ele>89.8</ele>
 <time>2020-03-24T16:50:43Z</time>
</trkpt>
<trkpt lat="34.252185" lon="135.400418">
 <ele>89.4</ele>
 <time>2020-03-24T16:50:43Z</time>
</trkpt>
<trkpt lat="34.252202" lon="135.400311">
 <ele>88.4</ele>
 <time>2020-03-24T16:50:43Z</time>
</trkpt>
<trkpt lat="34.252202" lon="135.400193">
 <ele>87.7</ele>
 <time>2020-03-24T16:50:43Z</time>
</trkpt>
<trkpt lat="34.252193" lon="135.400000">
 <ele>85.6</ele>
 <time>2020-03-24T16:50:44Z</time>
</trkpt>
<trkpt lat="34.252133" lon="135.399603">
 <ele>82.1</ele>
 <time>2020-03-24T16:50:44Z</time>
</trkpt>
<trkpt lat="34.252210" lon="135.399528">
 <ele>79.9</ele>
 <time>2020-03-24T16:50:44Z</time>
</trkpt>
<trkpt lat="34.252270" lon="135.399517">
 <ele>79.4</ele>
 <time>2020-03-24T16:50:44Z</time>
</trkpt>
<trkpt lat="34.252373" lon="135.399539">
 <ele>77.3</ele>
 <time>2020-03-24T16:50:44Z</time>
</trkpt>
<trkpt lat="34.252433" lon="135.399614">
 <ele>76.9</ele>
 <time>2020-03-24T16:50:44Z</time>
</trkpt>
<trkpt lat="34.252519" lon="135.399753">
 <ele>75.2</ele>
 <time>2020-03-24T16:50:44Z</time>
</trkpt>
<trkpt lat="34.252511" lon="135.399871">
 <ele>74.7</ele>
 <time>2020-03-24T16:50:44Z</time>
</trkpt>
<trkpt lat="34.252554" lon="135.399979">
 <ele>73.4</ele>
 <time>2020-03-24T16:50:44Z</time>
</trkpt>
<trkpt lat="34.252579" lon="135.400129">
 <ele>72.2</ele>
 <time>2020-03-24T16:50:44Z</time>
</trkpt>
<trkpt lat="34.252665" lon="135.400333">
 <ele>70.9</ele>
 <time>2020-03-24T16:50:44Z</time>
</trkpt>
<trkpt lat="34.252768" lon="135.400547">
 <ele>68.5</ele>
 <time>2020-03-24T16:50:45Z</time>
</trkpt>
<trkpt lat="34.252871" lon="135.400751">
 <ele>67.6</ele>
 <time>2020-03-24T16:50:45Z</time>
</trkpt>
<trkpt lat="34.252957" lon="135.400901">
 <ele>65</ele>
 <time>2020-03-24T16:50:45Z</time>
</trkpt>
<trkpt lat="34.253008" lon="135.401041">
 <ele>63</ele>
 <time>2020-03-24T16:50:45Z</time>
</trkpt>
<trkpt lat="34.253043" lon="135.401169">
 <ele>61.7</ele>
 <time>2020-03-24T16:50:45Z</time>
</trkpt>
<trkpt lat="34.253077" lon="135.401363">
 <ele>58.5</ele>
 <time>2020-03-24T16:50:45Z</time>
</trkpt>
<trkpt lat="34.253111" lon="135.401577">
 <ele>56.3</ele>
 <time>2020-03-24T16:50:45Z</time>
</trkpt>
<trkpt lat="34.253146" lon="135.401577">
 <ele>55.6</ele>
 <time>2020-03-24T16:50:45Z</time>
</trkpt>
<trkpt lat="34.253189" lon="135.401502">
 <ele>54</ele>
 <time>2020-03-24T16:50:45Z</time>
</trkpt>
<trkpt lat="34.253266" lon="135.401373">
 <ele>52.5</ele>
 <time>2020-03-24T16:50:45Z</time>
</trkpt>
<trkpt lat="34.253326" lon="135.401094">
 <ele>48.7</ele>
 <time>2020-03-24T16:50:46Z</time>
</trkpt>
<trkpt lat="34.253360" lon="135.401009">
 <ele>46.2</ele>
 <time>2020-03-24T16:50:46Z</time>
</trkpt>
<trkpt lat="34.253386" lon="135.400880">
 <ele>44.6</ele>
 <time>2020-03-24T16:50:46Z</time>
</trkpt>
<trkpt lat="34.253438" lon="135.400622">
 <ele>41.5</ele>
 <time>2020-03-24T16:50:46Z</time>
</trkpt>
<trkpt lat="34.253472" lon="135.400536">
 <ele>40.2</ele>
 <time>2020-03-24T16:50:46Z</time>
</trkpt>
<trkpt lat="34.253558" lon="135.400558">
 <ele>38.4</ele>
 <time>2020-03-24T16:50:46Z</time>
</trkpt>
<trkpt lat="34.253618" lon="135.400654">
 <ele>36.9</ele>
 <time>2020-03-24T16:50:46Z</time>
</trkpt>
<trkpt lat="34.253695" lon="135.400697">
 <ele>35.6</ele>
 <time>2020-03-24T16:50:46Z</time>
</trkpt>
<trkpt lat="34.253781" lon="135.400697">
 <ele>34.8</ele>
 <time>2020-03-24T16:50:46Z</time>
</trkpt>
<trkpt lat="34.253935" lon="135.400612">
 <ele>34.1</ele>
 <time>2020-03-24T16:50:46Z</time>
</trkpt>
<trkpt lat="34.254184" lon="135.400472">
 <ele>33.5</ele>
 <time>2020-03-24T16:50:47Z</time>
</trkpt>
<trkpt lat="34.254416" lon="135.400429">
 <ele>34.4</ele>
 <time>2020-03-24T16:50:47Z</time>
</trkpt>
<trkpt lat="34.254699" lon="135.400354">
 <ele>32.8</ele>
 <time>2020-03-24T16:50:47Z</time>
</trkpt>
<trkpt lat="34.255077" lon="135.400258">
 <ele>32.8</ele>
 <time>2020-03-24T16:50:47Z</time>
</trkpt>
<trkpt lat="34.255601" lon="135.400097">
 <ele>33.2</ele>
 <time>2020-03-24T16:50:47Z</time>
</trkpt>
<trkpt lat="34.255789" lon="135.400043">
 <ele>33</ele>
 <time>2020-03-24T16:50:47Z</time>
</trkpt>
<trkpt lat="34.256013" lon="135.399979">
 <ele>33.4</ele>
 <time>2020-03-24T16:50:47Z</time>
</trkpt>
<trkpt lat="34.256098" lon="135.400054">
 <ele>33.4</ele>
 <time>2020-03-24T16:50:47Z</time>
</trkpt>
<trkpt lat="34.256133" lon="135.400172">
 <ele>33.2</ele>
 <time>2020-03-24T16:50:47Z</time>
</trkpt>
<trkpt lat="34.256279" lon="135.400697">
 <ele>33.5</ele>
 <time>2020-03-24T16:50:47Z</time>
</trkpt>
<trkpt lat="34.256416" lon="135.401041">
 <ele>33.5</ele>
 <time>2020-03-24T16:50:48Z</time>
</trkpt>
<trkpt lat="34.256570" lon="135.401384">
 <ele>33.5</ele>
 <time>2020-03-24T16:50:48Z</time>
</trkpt>
<trkpt lat="34.256699" lon="135.401642">
 <ele>33.7</ele>
 <time>2020-03-24T16:50:48Z</time>
</trkpt>
<trkpt lat="34.256871" lon="135.401835">
 <ele>33.8</ele>
 <time>2020-03-24T16:50:48Z</time>
</trkpt>
<trkpt lat="34.256982" lon="135.401953">
 <ele>34.1</ele>
 <time>2020-03-24T16:50:48Z</time>
</trkpt>
<trkpt lat="34.257077" lon="135.402092">
 <ele>34</ele>
 <time>2020-03-24T16:50:48Z</time>
</trkpt>
<trkpt lat="34.257137" lon="135.402328">
 <ele>34.1</ele>
 <time>2020-03-24T16:50:48Z</time>
</trkpt>
<trkpt lat="34.257197" lon="135.402607">
 <ele>34.2</ele>
 <time>2020-03-24T16:50:48Z</time>
</trkpt>
<trkpt lat="34.257274" lon="135.402918">
 <ele>34.3</ele>
 <time>2020-03-24T16:50:48Z</time>
</trkpt>
<trkpt lat="34.257352" lon="135.403240">
 <ele>34.5</ele>
 <time>2020-03-24T16:50:49Z</time>
</trkpt>
<trkpt lat="34.257523" lon="135.403723">
 <ele>34.8</ele>
 <time>2020-03-24T16:50:49Z</time>
</trkpt>
<trkpt lat="34.257652" lon="135.404066">
 <ele>34.9</ele>
 <time>2020-03-24T16:50:49Z</time>
</trkpt>
<trkpt lat="34.257867" lon="135.404485">
 <ele>34.5</ele>
 <time>2020-03-24T16:50:49Z</time>
</trkpt>
<trkpt lat="34.258055" lon="135.404807">
 <ele>34.5</ele>
 <time>2020-03-24T16:50:49Z</time>
</trkpt>
<trkpt lat="34.258115" lon="135.405021">
 <ele>34.6</ele>
 <time>2020-03-24T16:50:49Z</time>
</trkpt>
<trkpt lat="34.258167" lon="135.405214">
 <ele>34.5</ele>
 <time>2020-03-24T16:50:49Z</time>
</trkpt>
<trkpt lat="34.258253" lon="135.405622">
 <ele>34.6</ele>
 <time>2020-03-24T16:50:49Z</time>
</trkpt>
</trkseg>
</trk>
</gpx>

